GFSSGP_250_rhum_000.txt.gz
RH
47 56 47 28 46 27 29 32 37 28 24 15 17 14 13 10 9 9 12 14 13 36 55 100 100 95 79 72 49 45 45 48 43 53 56 48 56 51 45 41 36 29 24 20 16 17 17 16 16
52 55 53 34 35 30 30 32 36 28 20 16 16 13 11 9 9 8 12 14 16 42 54 100 100 91 100 89 45 42 60 61 48 64 74 72 62 53 39 31 26 23 22 20 20 18 16 16 16
56 56 49 32 48 36 36 36 34 23 19 16 14 12 10 9 7 9 14 15 21 51 60 96 92 100 98 86 45 36 71 67 68 79 73 49 45 37 35 32 27 26 24 22 19 17 17 17 17
61 48 41 33 44 50 43 37 28 22 18 15 13 11 10 8 9 12 16 17 30 49 76 100 100 100 96 42 38 67 100 100 94 84 67 44 48 37 31 30 29 25 22 20 18 19 16 17 18
58 53 40 36 44 48 44 37 26 20 19 16 13 11 10 7 13 15 17 23 39 66 98 100 100 65 48 89 65 80 100 100 88 66 46 43 36 34 31 29 23 21 20 20 18 18 18 18 19
47 52 40 39 44 54 44 32 26 22 20 15 13 12 9 8 17 17 19 28 40 88 100 100 100 72 97 95 91 94 88 91 65 52 47 38 37 31 29 24 23 22 21 18 19 17 17 18 22
35 44 40 43 52 48 38 29 25 23 18 16 12 12 7 10 18 20 25 38 45 97 100 100 91 100 100 88 99 87 80 71 66 57 47 32 30 28 24 25 24 22 20 17 15 18 22 24 24
27 37 43 50 51 45 35 30 28 21 16 15 13 11 7 13 17 21 28 48 51 93 100 100 94 82 100 71 66 82 79 79 70 48 35 32 29 30 28 23 22 21 15 18 22 26 23 24 27
27 36 42 52 45 39 37 32 28 22 16 13 14 14 7 13 16 21 33 54 52 83 93 100 100 99 95 68 98 93 84 59 44 35 36 38 33 30 25 22 20 18 24 26 29 27 26 29 39
23 32 41 42 45 34 33 39 31 19 15 13 18 17 7 11 15 23 38 60 58 94 100 100 81 71 81 90 92 84 57 42 40 40 41 39 26 25 20 19 24 30 30 30 31 33 34 36 42
22 27 44 46 45 41 33 45 25 17 13 17 22 12 6 12 18 31 46 61 74 67 91 97 100 100 90 88 80 54 53 53 50 52 33 24 27 21 22 26 32 32 33 38 42 40 44 56 66
23 24 66 53 50 47 48 47 22 15 14 22 24 12 6 13 18 34 41 72 80 100 100 88 75 80 80 68 62 70 67 54 41 26 24 28 23 26 32 38 39 41 40 42 48 55 54 51 59
24 23 53 65 65 57 57 46 19 14 16 25 26 12 6 12 18 30 44 62 79 88 82 84 84 71 69 73 76 69 44 26 24 26 26 25 30 36 41 42 40 38 45 45 52 67 81 82 83
21 30 62 86 82 61 64 35 16 13 18 34 26 12 7 13 15 35 43 77 89 93 90 74 95 99 100 84 63 39 22 32 30 26 27 33 38 39 43 44 43 44 44 48 58 74 84 98 100
20 36 55 79 87 71 59 27 15 21 40 42 26 20 17 20 42 54 75 71 87 81 95 100 100 90 61 42 29 28 33 30 26 28 32 35 43 43 43 43 43 49 54 55 64 72 97 100 62
21 38 58 85 89 68 43 19 16 31 39 47 33 34 40 54 61 72 88 98 100 100 100 99 73 43 35 29 47 42 31 28 34 37 41 43 42 43 44 46 49 52 57 67 78 82 69 66 70
25 46 63 91 95 71 34 18 18 32 46 56 60 75 90 95 100 100 100 100 100 100 93 58 38 36 45 51 37 32 29 32 34 37 41 41 41 43 53 64 60 62 68 58 54 60 66 69 72
29 42 72 97 94 66 28 19 20 44 29 44 61 76 89 100 100 100 100 100 85 64 41 33 39 46 38 33 30 32 35 36 38 39 40 38 37 51 56 51 50 56 58 58 80 79 80 84 80
34 55 100 100 90 47 23 22 20 24 40 37 59 85 86 100 100 95 74 54 37 28 33 45 46 32 36 50 56 61 55 58 55 49 47 49 49 46 40 50 57 52 57 78 99 100 100 96 66
43 50 100 100 67 43 25 23 18 20 33 32 60 60 78 84 82 64 44 32 30 34 46 44 39 47 57 63 69 72 65 43 35 36 40 40 41 48 59 59 65 70 74 79 64 57 64 77 75
42 88 100 100 69 33 26 26 21 25 22 20 23 30 34 31 32 34 34 35 43 49 47 46 50 52 61 68 67 65 54 53 46 44 44 44 50 66 67 59 55 54 44 48 47 47 49 61 74
70 100 100 89 61 35 33 28 20 22 23 29 28 28 32 35 36 41 44 45 40 41 48 47 49 55 59 62 63 56 60 53 52 58 64 62 69 70 57 47 39 43 43 44 48 44 39 41 44
99 100 100 86 55 39 37 30 26 24 27 25 26 31 38 39 35 34 34 36 36 35 39 49 55 60 58 52 47 47 48 47 47 51 64 61 68 56 56 64 67 65 53 52 44 35 36 55 44
100 100 98 80 52 36 38 30 26 30 28 30 37 35 33 31 32 32 33 35 40 51 56 52 50 45 44 46 59 67 64 62 64 61 60 58 67 74 74 66 60 56 47 54 51 45 64 66 53
100 96 94 70 48 44 35 38 30 34 32 33 32 32 34 40 44 46 46 52 56 59 55 58 62 62 68 71 64 66 71 58 51 58 67 58 48 40 39 42 54 56 50 55 68 66 58 52 40
100 96 95 76 50 57 49 47 56 37 40 41 39 39 43 45 51 60 62 61 63 55 51 60 76 84 77 76 79 60 47 42 67 90 53 65 46 52 51 50 52 58 49 50 50 50 49 37 36
100 100 100 74 51 47 64 51 46 50 36 40 42 49 50 53 70 75 76 69 69 67 57 52 68 80 69 56 53 48 49 66 58 51 60 82 61 44 38 37 48 49 50 55 56 68 58 34 35
100 100 98 75 53 44 45 46 41 47 47 49 51 65 78 76 73 70 69 69 59 51 54 55 58 57 60 62 63 61 60 62 63 76 88 93 82 60 48 43 42 52 60 52 59 81 61 40 40
100 100 98 83 72 58 51 47 47 51 57 63 70 75 84 82 68 62 73 71 64 61 64 65 62 62 67 72 77 84 87 89 96 100 100 92 78 68 62 61 62 48 43 57 69 88 76 50 41
100 100 100 100 99 82 80 90 63 66 70 73 65 68 74 74 71 73 80 87 89 87 87 98 99 100 100 100 100 100 100 100 100 100 90 77 80 69 73 73 62 48 49 53 77 73 73 52 36

GFSSGP_250_rhum_003.txt.gz
RH
95 82 62 53 56 49 44 30 25 21 25 20 27 25 24 18 16 12 10 10 10 12 12 16 47 56 88 100 100 100 74 61 63 67 70 62 59 52 46 47 41 37 38 32 28 24 20 18 18
83 83 76 71 55 46 47 37 28 23 20 27 24 24 21 18 14 10 10 10 10 13 14 23 62 64 96 100 100 100 74 64 64 77 54 60 60 59 60 50 51 46 34 27 24 20 18 19 19
84 89 96 86 56 44 45 46 24 20 33 32 25 22 19 16 12 10 9 8 9 14 15 32 68 81 100 100 91 73 94 58 53 57 58 66 60 63 57 47 42 39 29 24 20 19 21 20 19
51 62 85 94 55 47 38 40 31 21 29 34 26 19 18 15 10 10 8 9 11 16 16 36 70 99 100 83 86 100 96 60 65 82 71 74 78 71 61 38 34 38 27 21 21 22 20 19 18
37 47 71 75 58 51 40 33 30 26 33 34 24 18 18 13 10 9 10 12 15 17 20 50 71 99 100 87 100 78 70 53 80 100 100 100 96 64 44 38 34 30 23 21 24 22 20 19 18
36 42 43 53 51 55 50 37 33 38 38 30 22 16 16 11 10 8 12 14 16 18 30 63 69 83 59 100 87 50 78 66 70 100 98 86 66 48 40 32 27 24 22 23 22 21 17 17 20
28 31 33 42 54 55 42 35 42 46 35 28 18 19 14 11 10 9 16 16 18 22 50 65 74 98 100 100 49 94 92 100 98 78 80 71 63 51 37 25 24 24 24 22 22 16 20 24 25
23 26 29 33 42 47 37 42 43 53 34 28 20 16 12 12 11 10 16 18 20 32 56 64 84 100 100 99 79 100 100 80 72 77 70 64 61 42 30 28 30 26 23 22 19 24 24 26 27
24 24 25 28 37 35 54 41 42 42 32 25 20 14 10 15 11 11 16 19 26 49 51 75 89 100 100 80 96 100 100 70 76 76 67 55 39 33 36 33 26 25 19 26 27 26 29 32 36
22 24 25 24 26 35 46 41 44 35 35 22 18 11 13 17 8 11 15 20 28 49 55 67 100 100 100 100 100 100 100 69 76 73 53 46 43 47 43 25 27 20 23 28 31 34 35 38 41
19 20 21 21 27 32 40 44 41 32 32 22 14 11 14 19 6 9 13 19 31 54 53 61 93 100 100 94 100 79 71 84 78 57 64 56 51 39 22 27 22 26 31 38 38 39 40 46 59
23 17 18 21 23 35 37 48 31 42 31 19 13 13 23 14 5 10 13 20 42 54 51 61 82 100 100 99 91 83 78 68 65 72 56 42 26 25 30 24 32 38 41 38 39 40 40 37 41
23 16 20 23 23 32 50 39 33 44 28 15 14 14 27 9 6 12 17 28 54 54 60 90 98 92 70 68 73 72 68 75 80 55 30 23 30 29 28 35 39 40 41 41 39 39 40 43 54
18 16 17 23 25 30 42 48 48 34 26 14 16 27 25 11 8 12 20 42 61 70 93 89 82 74 81 82 94 98 96 68 43 22 30 34 28 27 35 41 43 44 42 40 42 47 52 59 62
26 16 17 21 24 43 60 77 58 47 20 15 22 36 22 15 10 12 26 61 72 91 73 78 74 88 91 100 100 80 49 35 27 26 33 27 29 36 43 43 42 40 39 48 54 45 60 65 61
27 21 19 19 25 41 80 73 65 47 18 16 28 37 23 21 15 22 30 51 83 78 88 82 80 100 100 100 68 38 33 37 37 34 29 32 36 39 43 41 36 35 42 53 45 47 45 48 57
30 20 18 19 31 59 80 60 72 39 18 16 34 40 32 32 33 46 61 81 83 84 73 88 100 100 90 63 36 41 44 37 36 32 33 34 36 38 40 38 34 36 49 42 43 48 46 61 56
27 22 19 21 33 58 78 59 80 38 18 20 53 53 47 60 69 73 84 90 90 99 100 100 100 92 57 35 41 47 35 36 41 42 43 45 46 41 42 45 46 43 39 47 60 60 57 52 40
29 23 19 22 35 69 91 86 88 28 21 32 59 62 72 88 99 100 100 94 94 93 95 85 64 48 34 41 42 42 52 60 68 73 59 46 40 36 37 37 37 43 50 71 73 60 46 45 44
29 21 18 24 40 64 99 83 71 34 23 28 52 70 74 88 99 91 84 72 64 71 64 39 29 30 41 43 48 54 61 59 62 58 50 40 34 34 37 40 48 63 76 88 74 70 68 70 67
26 20 21 29 42 94 84 98 71 29 21 22 38 72 78 92 87 69 68 67 68 57 43 36 32 42 45 46 46 51 64 66 56 50 41 37 37 40 44 51 68 64 62 62 59 49 38 39 49
22 24 21 22 38 93 84 93 58 24 22 25 25 39 43 40 59 64 48 46 38 37 34 37 43 42 41 48 56 61 60 58 50 46 43 41 42 43 51 60 59 57 52 45 34 38 41 41 42
26 25 21 20 79 88 83 94 36 24 26 28 32 24 31 47 35 38 38 40 43 46 46 43 39 44 46 47 54 55 52 50 45 38 37 38 37 62 70 58 57 64 56 62 58 50 50 48 48
25 23 21 26 81 84 99 85 32 32 33 32 42 41 37 38 44 50 51 47 45 45 47 48 47 46 50 54 52 50 46 44 43 41 38 47 74 62 42 51 68 54 54 71 91 97 89 74 61
23 23 21 45 96 98 99 79 34 40 38 36 38 46 48 50 49 46 48 50 54 60 60 56 52 54 53 51 52 51 51 50 52 62 78 83 56 48 48 57 61 63 80 100 100 99 89 81 69
22 22 33 60 100 100 99 74 39 44 52 52 49 52 48 45 48 47 48 51 55 62 65 65 57 55 57 57 50 46 42 46 59 80 60 55 61 69 72 81 88 86 92 100 100 95 84 81 86
23 46 72 66 100 100 100 69 47 46 54 56 58 69 69 57 56 60 66 63 61 58 58 61 62 61 58 61 63 61 56 55 56 56 60 63 75 83 92 89 94 95 90 100 100 76 74 75 69
67 93 93 100 100 100 96 67 52 51 46 65 84 69 62 58 58 60 55 61 70 73 83 86 86 80 74 76 76 75 73 73 71 72 75 72 74 86 96 99 100 100 100 80 58 51 46 47 66
100 100 100 100 100 100 93 76 54 48 43 45 54 69 76 72 60 59 68 88 99 100 99 92 85 84 78 68 63 61 60 59 61 65 68 76 81 83 90 97 89 68 57 58 56 54 43 37 44
100 100 100 100 100 100 96 83 70 52 48 50 52 56 62 69 84 95 96 91 84 86 84 72 67 63 56 59 69 75 77 77 84 97 99 99 100 97 81 68 74 74 59 51 49 38 35 33 26

GFSSGP_250_rhum_006.txt.gz
RH
87 92 89 72 53 46 48 46 49 48 39 28 25 30 26 24 20 22 18 15 12 10 11 11 11 12 18 40 68 52 99 95 65 75 74 86 76 78 71 60 52 46 38 36 33 30 28 25 22
93 86 94 88 97 62 46 57 63 38 38 38 31 21 28 25 23 21 18 14 10 10 11 11 12 12 25 61 83 96 100 100 94 84 73 68 90 87 78 73 58 54 36 37 36 30 31 24 22
74 72 81 98 88 77 54 72 58 38 35 41 31 26 26 28 24 21 16 12 9 9 9 11 13 13 28 64 91 86 100 100 99 80 73 54 64 71 77 63 64 44 43 32 30 29 30 25 24
69 65 66 80 75 64 67 81 68 50 39 38 25 22 30 29 27 19 15 11 9 8 7 11 14 15 44 76 91 86 100 100 82 84 75 48 68 82 82 57 48 45 42 36 28 32 30 24 23
62 64 59 58 69 52 62 62 63 58 44 33 23 30 39 31 25 17 13 10 9 9 10 14 16 22 61 82 96 100 100 97 100 98 75 59 100 100 81 71 61 60 45 36 31 29 27 24 22
30 41 58 50 50 50 49 42 41 46 41 32 25 26 37 26 22 16 12 10 10 10 14 17 19 37 77 84 100 100 100 100 79 67 56 73 93 97 94 84 77 57 40 33 29 29 24 23 18
30 31 29 28 33 36 36 40 56 61 51 38 28 28 30 26 22 14 11 11 11 12 16 17 21 55 83 93 100 100 100 100 70 79 100 98 85 70 74 62 52 47 40 32 30 24 21 18 18
25 28 30 26 23 27 36 46 58 53 43 45 32 26 31 26 19 13 12 12 11 13 16 22 37 66 85 87 100 86 100 92 88 72 78 67 58 57 52 49 53 38 38 35 25 19 18 21 27
24 23 24 25 26 30 33 41 37 42 52 47 33 26 28 27 16 12 15 10 12 15 19 30 50 77 85 86 100 100 100 82 97 100 94 65 65 70 62 51 42 47 40 24 21 20 25 26 29
19 20 23 25 25 26 30 32 29 40 55 41 31 33 28 25 13 12 16 9 13 16 22 40 69 86 91 94 100 100 100 100 100 92 86 73 78 73 55 54 48 39 23 24 22 25 30 32 32
19 18 19 23 24 26 28 24 30 43 45 42 35 42 36 19 11 18 11 9 14 18 24 50 72 80 88 93 100 100 100 99 71 66 79 82 71 62 54 44 36 22 29 23 29 33 32 33 35
18 17 16 18 23 22 22 24 29 29 40 42 35 51 35 14 11 24 8 10 14 22 35 45 73 83 97 100 100 100 90 68 73 91 79 69 60 55 45 27 24 30 28 33 33 34 37 36 42
18 17 16 18 19 20 21 22 26 30 38 38 49 50 25 12 22 19 7 13 17 24 38 70 74 75 79 96 100 94 74 66 64 69 69 67 58 45 21 29 28 28 33 34 37 39 41 41 46
18 18 16 18 17 16 22 24 31 30 40 61 56 38 17 13 36 11 10 17 18 23 42 61 76 80 74 68 67 71 74 87 100 96 84 51 39 27 36 30 29 32 37 42 42 40 36 39 47
22 19 17 16 17 17 22 24 30 42 62 70 51 34 16 32 33 12 10 17 22 35 54 49 62 93 75 78 80 89 98 100 100 72 41 34 34 40 32 31 32 39 43 42 41 37 33 38 45
26 21 18 18 20 21 21 23 38 54 64 56 58 31 18 37 25 15 11 19 32 37 42 70 67 55 67 91 93 99 100 100 69 38 40 39 41 33 33 35 37 38 40 40 36 33 36 43 42
26 21 20 24 25 21 20 27 81 77 72 64 60 31 19 33 24 18 15 20 29 42 51 54 68 74 88 98 100 100 100 73 39 43 45 42 40 43 44 43 40 39 39 42 44 42 38 44 49
26 20 22 24 29 21 20 26 96 92 81 78 70 25 20 38 28 25 28 26 26 37 46 57 63 68 91 100 100 100 88 40 41 45 38 45 52 56 62 60 53 50 52 50 46 42 51 58 72
22 24 24 30 28 20 17 31 59 83 88 86 63 24 24 45 36 40 44 52 53 57 64 72 89 100 100 100 82 88 40 40 46 41 50 60 64 74 77 70 60 39 34 38 41 48 54 66 62
21 22 25 29 27 18 20 37 80 82 82 78 54 26 22 52 55 72 82 85 89 90 90 94 99 97 89 84 50 32 38 43 51 57 60 61 60 55 48 44 40 35 37 39 45 49 60 67 64
21 23 25 29 26 18 24 36 78 83 71 69 51 27 20 36 64 77 93 98 99 98 93 87 84 82 70 52 38 33 39 46 47 50 52 55 56 51 45 41 38 38 40 43 43 60 68 58 65
20 23 26 30 26 19 41 61 76 81 72 76 45 27 21 22 41 55 74 91 97 100 100 95 84 69 50 43 41 43 50 41 42 44 44 48 51 48 42 41 38 36 36 40 56 65 46 50 63
20 23 26 27 26 19 34 62 81 88 66 68 36 24 24 27 37 47 66 84 98 100 86 53 40 39 38 38 50 57 55 50 45 42 47 49 50 50 48 48 44 42 44 60 76 58 58 70 72
21 22 27 27 24 20 23 68 88 85 69 58 32 31 32 34 31 40 64 77 75 47 43 46 49 48 48 49 47 46 47 52 59 64 63 60 55 52 47 47 48 52 82 82 60 62 79 96 99
25 23 24 27 26 21 26 93 100 91 68 62 37 34 35 38 37 36 41 44 44 51 53 54 51 47 46 52 59 63 63 61 55 51 50 49 49 50 53 54 54 60 62 61 65 68 74 72 64
25 24 21 26 25 22 28 97 100 94 68 67 41 37 35 38 48 51 53 56 55 57 62 57 56 58 58 62 67 76 79 68 67 66 64 64 68 71 71 73 70 70 72 72 67 63 60 55 60
27 26 24 27 25 22 43 100 100 99 69 72 48 38 42 47 50 51 54 53 65 80 75 80 85 83 83 77 71 70 76 68 64 68 69 68 66 65 67 68 67 61 54 52 54 58 76 94 97
26 25 26 24 23 31 53 100 100 100 95 76 57 44 48 54 53 58 66 79 91 90 86 78 69 67 74 76 78 78 74 74 72 68 65 62 58 54 51 51 53 53 56 55 58 71 73 66 60
26 27 27 24 23 42 68 100 100 100 100 90 64 54 49 49 51 57 69 73 76 81 80 76 86 93 82 78 76 72 68 63 63 67 67 66 64 61 65 76 84 87 92 92 69 56 51 44 43
27 29 29 29 37 59 84 100 100 100 100 100 82 64 62 60 62 65 65 61 60 67 79 87 85 84 84 78 74 74 76 70 67 67 72 80 90 88 78 78 81 65 57 51 48 42 39 29 27

GFSSGP_250_rhum_009.txt.gz
RH
100 100 100 100 92 89 67 56 45 44 36 40 58 60 41 36 35 23 27 24 22 22 17 14 11 10 11 12 14 14 15 26 37 39 48 50 56 51 76 69 67 62 56 50 42 35 36 34 28
93 96 98 96 86 62 50 59 58 47 36 43 57 50 44 38 35 30 23 25 24 22 16 12 10 10 11 12 14 14 23 36 50 72 94 76 69 70 66 71 69 66 65 56 44 32 34 36 33
99 99 95 88 69 51 50 69 72 60 46 42 46 45 46 38 32 24 24 22 24 23 16 11 9 9 11 12 13 15 43 97 94 99 100 100 91 64 62 65 81 76 55 44 39 38 44 38 32
100 100 100 86 65 63 66 64 66 56 56 52 44 38 45 42 32 22 24 24 24 23 14 10 9 8 9 13 13 21 73 100 100 100 100 100 92 67 58 63 89 83 69 47 42 51 42 38 33
100 99 100 100 77 59 63 62 68 61 56 65 54 54 50 50 35 24 24 26 25 21 13 10 10 9 10 13 16 38 96 100 100 100 100 99 97 82 71 64 81 86 74 69 72 56 47 40 32
68 69 59 77 89 75 49 57 54 52 58 63 51 45 43 47 33 24 27 26 29 18 13 11 11 10 12 15 27 61 98 99 86 100 100 100 80 70 70 71 91 86 78 76 60 49 41 38 30
31 29 29 31 41 30 33 42 50 49 48 52 50 46 38 40 42 28 27 31 29 15 12 12 12 13 15 17 45 89 100 100 100 100 100 98 72 60 76 77 71 61 59 58 51 43 35 32 25
25 23 22 23 22 21 23 26 34 48 42 40 42 39 38 50 47 37 30 31 26 14 13 12 14 16 20 29 67 96 100 100 100 100 100 92 68 58 90 69 55 66 60 49 44 37 36 25 21
24 22 22 21 25 28 27 29 28 26 26 30 30 32 44 49 47 38 31 33 20 15 13 14 16 19 24 51 80 97 99 100 100 100 100 98 92 98 96 76 64 65 56 48 42 39 26 24 21
17 17 19 21 24 26 27 27 27 24 25 28 35 40 46 50 52 34 37 36 16 17 12 15 17 25 40 66 88 90 100 100 100 99 98 87 74 70 67 68 63 54 50 42 36 24 26 24 28
21 17 15 19 23 26 27 26 24 24 28 27 27 30 35 57 42 45 48 37 16 18 11 16 19 29 51 72 83 90 80 92 100 100 100 92 58 52 70 71 55 51 48 31 24 30 27 29 34
19 17 14 15 19 24 25 23 23 23 24 26 27 31 48 54 42 56 59 21 18 17 9 16 20 32 59 74 90 82 83 94 100 96 90 73 65 65 66 72 67 53 26 32 30 28 29 36 38
23 19 18 16 17 18 17 18 20 24 21 32 29 36 50 43 49 65 52 15 20 13 9 14 26 42 66 76 78 83 94 100 100 90 70 65 63 77 81 71 50 32 35 31 27 30 35 39 42
31 23 19 17 16 16 16 17 20 21 28 57 48 37 47 51 72 60 25 15 26 8 11 16 24 34 50 64 82 83 92 96 82 72 63 88 100 98 71 46 33 38 32 31 32 33 39 42 42
25 24 21 16 18 16 18 20 20 24 29 64 76 58 58 53 70 44 16 22 22 9 12 18 25 30 41 50 56 56 65 77 66 69 100 100 100 70 38 35 40 38 33 36 35 36 39 40 41
27 25 26 20 18 17 18 16 29 28 31 52 100 77 58 72 53 24 18 28 18 9 13 16 26 35 33 37 48 63 63 58 65 88 100 100 80 38 55 43 40 35 35 36 35 36 37 39 39
33 27 28 28 23 20 18 18 32 30 33 76 100 82 66 66 42 17 22 28 17 11 14 16 23 29 39 54 55 61 74 83 85 89 96 100 53 44 56 45 41 41 44 44 42 44 44 46 36
43 24 26 29 26 21 16 16 30 27 31 76 99 93 82 64 33 17 22 27 19 15 16 20 24 28 38 56 74 82 86 92 100 88 97 83 43 44 51 47 44 44 59 60 58 58 62 56 43
32 24 29 27 26 18 15 18 32 32 39 76 88 99 83 56 27 18 27 29 26 27 18 28 35 42 50 65 77 91 100 100 89 89 90 50 40 45 45 48 58 66 69 66 57 51 46 49 40
30 28 33 29 27 21 17 22 34 33 64 75 87 94 75 49 26 22 38 37 34 44 47 52 61 70 77 90 94 94 93 92 91 60 37 34 39 42 45 56 61 60 61 61 52 41 37 35 34
30 40 36 28 25 24 18 27 34 59 71 68 79 85 73 46 25 22 29 46 56 69 83 94 99 100 100 97 94 94 92 82 60 47 33 33 40 44 45 48 50 50 47 49 44 42 40 38 43
31 35 26 24 24 24 22 26 33 36 89 64 59 75 63 43 27 22 21 26 47 54 74 85 89 95 98 95 85 80 76 64 43 35 35 39 47 45 42 43 42 46 45 46 50 56 63 74 64
34 25 25 22 22 23 22 27 35 38 66 75 59 66 56 47 26 23 24 25 34 60 81 97 95 100 100 97 90 63 47 44 46 48 51 50 45 43 46 50 52 52 54 57 64 68 61 56 58
20 24 26 22 21 26 23 30 37 44 67 68 58 62 56 46 24 25 28 33 31 41 54 73 96 99 81 49 52 60 68 71 73 82 86 86 86 86 84 79 77 85 88 79 72 68 69 69 65
20 22 24 23 22 28 22 35 37 44 52 70 59 58 48 51 29 30 31 32 29 27 30 42 51 48 54 62 64 63 64 72 86 85 90 88 89 92 96 98 94 84 79 79 77 74 70 72 72
22 20 21 20 21 25 23 37 44 61 63 58 66 57 50 54 42 35 34 35 37 38 40 48 58 61 60 63 62 64 68 66 67 72 80 84 87 91 91 88 85 79 72 68 67 60 56 57 57
21 21 21 20 19 23 25 32 38 46 52 56 60 76 71 59 55 44 40 42 43 49 58 58 56 57 61 65 71 76 77 72 68 75 82 80 79 79 70 60 54 54 58 58 47 50 53 54 46
16 19 19 18 18 25 27 30 32 38 47 44 58 73 90 71 65 54 48 46 48 52 56 56 57 61 66 68 66 63 68 84 88 82 74 67 58 60 62 60 57 57 59 67 70 64 61 54 58
16 17 18 19 19 27 26 28 28 36 45 65 78 70 85 88 80 71 60 56 58 56 53 61 69 70 74 90 97 95 88 70 61 60 62 64 67 74 80 92 94 90 87 77 73 67 55 52 45
15 16 16 17 22 29 26 28 27 28 36 49 100 98 85 93 100 90 82 75 72 78 79 77 95 99 87 77 73 61 54 55 57 61 68 80 88 100 100 88 87 74 56 46 46 43 35 28 22

GFSSGP_250_rhum_012.txt.gz
RH
100 100 100 100 96 70 55 61 51 59 61 45 50 44 46 40 41 38 40 36 33 31 23 22 24 24 20 15 11 10 12 14 16 18 20 24 27 36 40 53 56 39 42 56 55 49 33 42 46
97 100 94 66 80 80 65 90 85 59 52 37 45 48 44 40 48 45 42 39 33 32 28 20 20 22 20 14 10 9 11 14 15 18 20 37 43 41 56 63 69 63 54 57 70 57 52 46 44
94 100 100 90 78 100 78 79 63 54 53 43 44 45 42 43 40 39 40 38 38 39 25 18 20 21 18 13 10 9 10 14 16 20 27 47 54 86 98 99 83 59 55 58 62 58 50 45 42
98 100 100 100 82 68 84 67 64 60 54 53 52 57 64 59 41 41 39 41 38 36 25 20 22 20 18 12 10 10 11 15 20 38 44 100 100 100 100 100 93 76 66 57 58 58 55 43 42
97 96 100 100 92 56 66 99 93 73 59 63 71 67 56 63 42 39 43 36 39 36 27 22 22 23 17 11 10 11 12 17 26 49 100 100 100 100 100 100 93 72 72 60 59 57 54 48 54
93 100 100 100 92 74 93 100 100 100 83 75 75 70 46 40 40 42 46 40 38 38 36 29 28 24 15 11 11 12 14 24 40 93 100 100 100 100 100 98 78 58 50 51 51 49 51 52 50
98 100 100 88 91 69 92 100 93 96 100 100 67 32 28 42 42 40 42 43 39 44 43 36 30 24 14 12 12 14 17 36 63 98 100 80 97 100 100 74 58 50 58 68 57 50 50 50 47
96 94 92 78 88 91 84 77 64 50 37 41 30 26 26 35 44 38 37 42 40 45 47 39 30 21 14 12 13 16 20 47 78 99 100 100 100 100 96 83 80 71 63 60 58 59 52 46 42
60 76 75 72 61 52 44 37 29 26 24 22 22 20 27 34 35 33 33 39 49 41 44 35 30 17 14 12 14 18 28 63 96 100 98 100 94 100 100 90 66 70 57 61 67 50 47 42 32
36 35 39 48 40 31 28 27 24 20 18 20 24 23 24 24 22 24 31 39 45 45 43 34 29 16 14 13 16 23 37 59 93 100 100 100 100 89 83 92 86 54 60 69 55 55 53 29 27
37 34 30 27 27 27 25 25 23 18 18 23 25 24 23 24 25 28 34 42 42 51 42 36 20 17 13 14 20 29 60 80 99 98 98 100 100 100 98 84 71 55 60 61 58 58 40 26 26
35 32 24 19 19 21 23 25 20 22 23 23 27 26 26 27 31 40 46 38 52 48 45 32 19 16 11 14 21 36 66 80 83 85 96 100 99 98 76 71 62 60 74 63 56 41 27 28 26
32 27 21 19 18 16 21 22 25 24 19 25 26 25 24 28 34 49 49 56 50 47 43 22 20 13 11 16 27 43 61 78 77 76 76 100 97 86 73 69 81 89 76 62 36 27 32 29 29
27 23 23 21 16 14 17 20 23 18 21 27 30 25 24 28 36 38 63 51 50 50 32 19 22 10 10 16 28 45 61 74 76 100 97 100 91 71 82 99 95 84 62 39 33 35 32 32 33
24 23 26 18 18 17 17 16 16 17 19 22 25 25 25 35 71 60 56 46 54 48 20 23 21 10 12 18 26 38 62 78 77 76 83 92 75 72 90 100 82 71 49 37 38 38 34 33 33
28 23 28 16 24 19 19 15 17 18 21 22 24 24 28 70 100 97 81 67 57 25 18 26 18 9 13 17 26 40 49 60 65 60 64 78 71 71 92 93 74 76 44 46 43 36 35 37 38
28 29 38 24 24 23 22 16 18 19 18 24 25 26 35 99 100 100 88 67 40 20 24 25 18 10 15 16 23 32 41 53 55 68 70 69 66 80 67 69 77 72 42 44 43 36 38 48 50
50 56 44 34 25 26 24 21 23 19 18 24 29 32 94 100 100 93 65 55 32 18 24 27 20 15 18 17 20 26 43 60 66 66 72 77 74 71 75 84 85 48 40 42 43 39 49 57 53
43 41 33 44 30 26 27 26 23 19 16 22 28 59 100 100 100 88 71 46 24 18 22 30 28 22 25 27 28 40 48 60 71 73 88 96 88 82 78 58 41 32 36 41 42 42 53 57 54
28 33 47 40 34 24 24 28 26 20 16 20 28 56 100 100 100 86 68 39 20 17 22 31 34 38 39 44 48 57 72 85 93 92 91 84 72 69 58 48 38 33 38 43 46 46 49 51 51
34 42 43 42 36 22 24 29 28 22 17 23 27 65 100 100 95 74 63 35 20 19 22 35 44 54 66 70 70 74 79 89 90 78 74 76 71 61 46 39 37 40 49 54 50 44 41 42 45
38 45 42 39 39 24 31 33 29 25 19 21 28 39 99 100 80 68 60 42 23 21 22 25 38 58 66 77 84 94 100 96 81 71 58 45 40 40 42 48 55 56 55 55 61 64 60 55 49
39 38 38 37 39 30 30 38 31 26 21 21 29 27 81 100 89 70 55 39 24 21 22 25 35 55 64 65 74 89 88 77 67 47 48 49 49 51 54 56 58 64 67 63 59 58 64 74 76
32 33 34 38 38 36 30 43 26 26 22 21 25 28 42 100 89 72 54 42 27 22 27 31 31 34 51 63 78 86 80 58 55 63 65 71 74 82 92 91 80 74 77 85 90 95 95 96 98
27 27 34 38 38 37 26 34 32 28 21 23 27 31 35 99 95 72 50 46 35 24 28 33 37 35 34 37 47 49 53 68 66 70 85 87 84 76 66 62 67 72 72 76 83 85 80 74 70
26 28 32 35 36 32 24 31 33 28 21 23 30 27 30 90 100 88 56 46 42 34 32 36 39 39 43 50 60 67 62 64 69 65 61 61 59 62 71 78 86 89 83 71 62 58 60 61 57
25 26 28 33 31 29 27 28 30 26 22 21 24 29 37 50 100 93 69 63 54 46 43 42 44 46 52 58 57 55 55 57 63 71 77 84 83 85 81 66 66 64 67 73 59 62 71 68 71
25 26 26 31 33 30 27 26 26 24 21 20 22 28 35 40 68 94 67 71 71 63 59 58 60 66 71 70 72 76 77 88 90 96 89 72 64 61 58 61 71 66 65 74 91 88 72 57 46
26 26 26 29 35 30 28 26 23 22 19 21 23 28 31 44 55 45 73 80 92 86 88 87 89 91 92 95 94 96 100 100 98 75 54 51 62 63 73 77 91 90 70 49 44 41 39 38 33
26 26 24 29 33 26 25 25 22 19 17 24 28 28 29 28 30 33 46 99 100 100 100 100 100 100 99 95 100 100 94 82 62 50 56 60 68 77 75 58 43 39 37 43 42 42 42 39 34

GFSSGP_250_rhum_015.txt.gz
RH
100 100 98 62 98 100 100 100 98 100 85 70 70 58 49 39 42 40 35 33 32 33 32 31 33 30 23 19 17 18 19 16 12 11 12 15 19 26 24 29 36 55 43 41 49 37 48 48 53
70 98 100 97 92 92 100 84 100 100 83 62 70 82 56 40 36 40 41 37 35 35 33 32 32 33 28 24 18 17 17 15 11 10 12 15 21 28 26 29 44 42 61 56 58 55 44 41 40
59 57 92 98 100 99 100 97 83 66 74 98 83 70 65 47 39 37 36 35 39 38 37 33 34 32 28 21 18 18 17 15 11 10 12 17 24 32 27 45 50 80 100 97 85 63 63 54 46
95 63 48 66 76 92 96 97 97 80 81 90 86 62 61 55 42 42 38 36 33 36 36 36 34 33 28 21 22 24 20 15 11 11 13 20 34 35 40 95 100 100 100 100 81 67 55 57 58
100 100 68 63 97 76 51 55 82 92 70 76 81 60 60 56 45 48 44 38 35 30 32 39 39 36 31 28 30 28 22 14 11 11 15 23 35 44 94 100 100 100 100 100 78 61 47 47 49
97 100 99 100 100 86 69 99 100 94 75 74 79 74 76 46 48 67 68 44 27 27 27 31 36 33 33 29 30 29 21 13 12 13 17 30 59 100 100 100 100 100 100 94 60 47 45 55 54
81 100 99 92 91 61 66 100 100 93 95 100 96 87 81 83 92 78 64 32 27 22 24 30 32 29 33 29 26 29 18 13 12 16 19 49 76 100 100 100 100 100 100 77 62 61 53 51 57
100 78 100 100 80 50 68 82 87 93 86 97 80 70 94 74 56 37 31 26 24 24 24 30 29 28 30 27 31 28 14 14 15 17 25 71 100 100 100 77 78 81 97 94 61 54 48 46 57
100 94 99 99 89 77 87 85 89 78 86 81 85 81 69 50 33 27 24 21 25 26 24 24 25 26 30 34 34 21 15 15 18 21 49 66 100 100 100 100 100 100 100 82 73 69 54 52 56
96 100 100 92 86 100 100 87 92 84 76 73 66 40 31 26 24 21 23 22 23 21 21 22 25 26 41 38 32 16 15 15 20 27 69 72 100 100 100 100 100 100 88 90 74 58 50 54 57
76 95 90 97 88 96 92 87 78 66 58 42 32 27 23 22 22 22 21 20 21 22 26 29 33 38 44 40 22 17 12 18 24 36 74 82 97 100 100 100 100 94 80 78 62 62 59 67 58
56 62 68 63 58 59 57 58 54 50 37 27 25 26 24 23 21 21 21 22 24 25 45 48 42 50 42 32 20 15 13 22 31 48 71 97 100 100 100 100 100 81 92 65 83 86 81 65 43
57 48 46 47 37 36 34 33 30 30 24 26 28 25 23 22 22 20 20 24 26 36 80 70 57 46 45 21 20 12 17 26 42 77 87 96 95 100 99 98 87 90 82 74 89 78 73 58 36
62 44 42 38 34 28 23 24 28 22 27 31 27 21 20 21 22 22 23 27 32 58 67 56 49 48 29 23 18 12 16 28 51 72 89 93 92 95 84 86 96 80 71 85 77 72 66 58 38
56 38 38 38 34 22 23 20 20 23 23 24 22 19 19 19 22 24 29 48 76 81 72 59 53 33 21 25 14 10 16 27 49 70 90 86 94 82 100 95 84 69 70 84 74 62 69 66 42
52 33 38 38 32 24 28 16 20 19 19 17 17 18 19 23 22 29 72 95 95 94 72 56 41 26 24 22 13 13 16 28 48 61 76 81 80 77 66 65 67 67 66 72 65 60 68 58 40
36 35 34 30 29 37 26 17 25 19 17 16 17 18 24 24 25 55 100 100 96 78 64 52 36 22 24 23 15 16 16 24 38 51 52 62 58 59 67 67 63 70 83 73 73 70 54 37 36
39 40 37 27 43 31 25 17 26 21 18 20 18 17 22 26 31 88 99 100 96 74 49 43 30 18 23 27 20 21 18 21 28 37 51 66 70 75 75 74 80 86 82 72 59 49 37 32 32
49 39 32 20 45 46 32 20 25 25 22 19 17 16 22 26 45 99 100 100 80 77 46 36 20 20 24 28 31 25 29 26 29 37 42 54 66 76 94 94 78 68 73 72 56 47 36 34 30
36 41 32 23 55 49 41 23 23 27 21 20 18 17 21 25 38 80 100 98 80 72 48 30 20 20 24 27 37 48 48 50 51 59 69 85 96 88 83 83 82 72 53 43 41 40 43 45 41
34 44 31 25 58 43 42 30 27 25 20 21 18 18 20 24 31 78 100 100 85 66 60 44 26 18 22 29 40 54 64 74 80 86 91 94 87 82 76 52 45 50 55 56 53 49 43 43 48
38 45 28 25 46 39 46 38 31 25 24 22 21 20 18 20 29 61 100 100 93 67 50 44 31 22 24 28 50 66 69 74 79 83 82 81 76 64 46 54 60 60 57 53 49 48 48 47 49
43 40 30 27 38 33 50 52 39 28 30 31 25 21 21 19 22 34 97 100 92 71 50 41 31 24 26 28 29 35 43 51 58 63 66 60 54 51 61 58 53 51 49 46 46 52 59 71 84
32 30 36 34 36 42 43 52 34 35 39 34 26 24 21 17 19 26 40 99 93 89 55 41 36 31 28 29 29 31 32 35 38 42 47 51 59 61 62 61 58 59 73 87 96 92 81 67 63
29 33 35 38 40 50 44 53 31 38 33 29 29 25 23 22 21 20 26 43 85 100 81 54 43 38 34 32 37 40 43 47 53 59 66 69 71 70 66 72 85 80 73 72 68 65 66 72 78
31 34 39 42 46 47 41 53 40 34 30 29 26 24 23 23 26 24 24 23 30 71 93 78 62 51 49 51 53 55 59 63 68 74 79 82 80 78 89 96 85 87 93 82 76 73 80 82 69
28 28 38 39 39 46 41 45 48 36 31 27 26 25 25 24 23 24 22 24 27 30 65 98 87 73 67 69 70 77 83 86 90 91 91 92 97 100 94 89 99 97 80 61 71 68 66 57 43
27 29 28 34 34 35 43 39 41 36 30 25 24 26 25 25 22 18 20 22 25 27 46 62 81 82 93 90 92 95 95 98 97 90 85 91 99 98 98 92 71 58 61 61 58 58 47 41 37
25 28 28 33 33 33 36 38 33 34 30 28 26 26 25 23 22 18 21 25 25 26 30 64 71 73 84 94 97 98 98 97 87 77 84 92 88 74 59 58 58 60 60 55 49 42 39 37 38
23 26 27 27 27 26 28 32 31 32 33 30 28 27 25 22 21 19 25 28 28 30 33 44 69 82 88 94 100 100 97 84 79 79 73 68 58 56 56 58 63 59 43 36 34 37 38 45 46

GFSSGP_250_rhum_018.txt.gz
RH
75 100 100 98 97 66 66 64 100 100 100 100 100 100 95 76 62 57 47 35 33 34 30 29 26 25 27 28 28 30 25 25 21 18 20 18 15 11 11 12 16 22 26 77 62 51 45 40 45
82 67 95 100 92 100 78 57 83 100 100 100 98 96 91 81 62 47 47 34 30 32 33 32 32 34 33 32 29 29 25 22 18 22 23 20 14 11 11 16 27 33 55 52 43 48 61 58 69
84 65 58 87 100 100 77 79 72 100 100 100 100 100 84 75 62 43 41 38 32 33 34 32 31 28 30 31 26 27 28 26 23 25 26 21 13 11 13 22 44 48 43 55 64 95 100 100 99
70 87 62 58 53 70 100 100 71 87 98 100 100 89 75 73 63 58 40 36 34 32 36 34 33 25 21 20 26 27 28 26 27 26 27 20 12 12 16 33 41 36 53 97 100 100 100 87 82
57 71 65 71 61 51 51 79 100 100 100 100 100 99 73 64 59 47 52 41 32 37 43 44 38 31 23 20 19 22 24 23 27 24 25 16 12 13 20 50 38 59 100 100 100 100 100 98 76
95 82 56 55 76 65 56 47 50 67 90 97 79 64 73 62 62 50 55 40 40 58 50 45 38 33 21 21 20 18 20 20 22 26 23 14 13 16 24 35 62 100 100 100 100 100 100 97 64
100 75 92 58 66 83 58 52 48 51 81 90 66 47 84 88 62 58 47 41 72 82 64 50 36 27 21 19 22 18 20 22 24 28 17 13 14 18 25 50 100 100 100 100 100 100 99 68 65
58 100 100 74 73 81 100 77 56 52 62 75 66 65 80 59 47 57 61 77 76 76 64 37 28 24 21 20 22 18 19 25 29 23 14 14 16 20 27 92 100 100 100 99 93 68 84 100 73
24 40 97 100 97 100 100 100 100 100 94 74 51 53 50 52 66 67 75 73 67 53 35 29 23 19 21 20 21 20 23 32 30 17 13 14 17 25 38 85 100 100 100 100 87 100 100 91 70
25 32 43 92 100 98 100 100 98 75 78 74 49 51 60 75 58 66 70 58 43 31 21 19 20 19 22 20 28 33 39 36 24 16 12 15 21 42 48 100 100 100 100 100 100 100 97 71 60
31 42 33 55 100 100 100 100 99 88 77 66 70 64 88 80 71 58 50 35 22 18 18 20 21 22 22 37 41 49 44 32 18 14 12 17 28 62 58 100 100 100 100 100 100 100 86 70 61
44 47 35 53 100 100 100 100 98 88 88 84 75 92 80 69 63 50 28 20 19 19 21 21 23 26 38 55 60 51 42 21 19 12 14 27 37 86 65 72 100 100 100 100 100 72 69 75 66
48 49 45 76 100 100 100 100 99 95 61 78 87 72 63 52 28 21 22 22 19 20 20 22 29 51 63 67 57 48 25 22 16 12 19 34 52 72 97 93 99 100 100 86 89 91 80 75 67
53 54 44 72 100 100 98 94 88 62 60 52 44 37 31 26 24 23 20 19 20 20 23 33 56 70 66 54 46 30 25 20 12 14 21 56 78 96 98 97 97 94 91 92 84 88 94 75 73
47 50 44 65 81 82 65 52 56 47 34 33 32 30 27 24 26 20 18 17 20 24 39 58 57 56 56 50 34 27 25 16 14 18 24 63 83 95 94 100 100 100 100 91 77 80 76 70 70
44 43 48 59 55 57 40 34 32 27 27 28 28 26 26 26 20 18 20 21 23 67 86 85 72 61 56 39 36 26 23 17 17 18 29 54 80 95 99 98 99 90 78 75 70 72 56 62 81
40 39 53 53 50 48 40 34 27 24 25 23 22 22 20 16 16 21 24 23 54 86 96 80 73 57 46 38 27 26 26 19 19 20 27 39 58 71 76 69 65 64 53 55 62 64 80 86 77
38 36 50 50 50 50 44 34 36 27 27 20 19 18 17 16 17 20 24 37 73 96 93 87 67 55 41 26 18 25 29 26 23 23 21 25 31 46 47 48 47 47 57 71 93 93 81 76 74
39 62 51 47 50 54 50 35 46 34 28 20 18 19 18 17 16 19 27 55 100 100 85 79 63 50 29 32 18 20 30 38 34 31 29 27 30 35 44 49 58 83 100 98 83 70 65 46 40
53 59 52 37 51 53 53 33 48 34 27 22 21 20 18 18 15 20 26 40 73 100 96 73 58 55 40 35 22 20 23 36 47 54 55 56 59 68 83 94 100 98 89 80 72 52 44 50 46
40 48 43 34 46 53 58 31 34 30 23 23 22 21 21 17 18 17 24 32 80 100 95 79 69 55 43 30 27 27 26 34 41 58 75 80 86 90 90 92 83 79 77 72 48 52 53 51 63
41 48 31 34 44 58 57 35 36 28 24 25 22 22 20 20 20 18 17 22 39 61 91 87 84 60 43 33 30 32 30 27 33 43 46 56 61 62 66 67 70 70 56 54 65 64 62 57 50
41 41 22 30 46 60 47 48 39 40 32 29 22 25 25 24 20 19 16 17 23 29 71 95 95 91 64 42 36 34 31 30 32 32 32 33 36 39 43 49 56 62 74 70 64 54 47 50 58
36 29 20 28 44 57 43 56 29 48 40 34 24 23 29 26 22 21 19 16 17 22 33 66 99 97 95 86 64 47 41 40 37 39 42 44 47 52 58 62 63 64 59 57 59 68 76 77 69
28 22 21 24 41 54 46 56 27 53 50 40 36 32 30 26 24 24 22 21 18 16 22 27 38 44 62 93 97 74 68 57 53 55 55 53 54 60 65 67 71 76 83 83 79 74 73 71 76
26 25 23 24 44 52 49 67 26 42 43 41 40 36 30 29 28 23 20 21 20 19 20 20 24 27 28 33 57 78 90 88 81 72 70 71 70 77 83 88 92 88 81 75 71 73 80 78 68
24 26 24 28 44 50 47 60 37 37 46 42 42 37 32 30 26 25 24 20 20 21 22 24 25 23 24 24 26 43 85 89 89 94 91 95 98 99 100 100 88 75 71 68 72 62 58 62 58
27 26 27 30 43 48 41 50 45 42 45 44 41 38 36 32 27 28 24 22 22 21 22 24 25 24 25 28 28 35 63 70 82 90 98 100 100 100 95 83 78 79 73 58 52 52 50 51 55
25 26 29 34 39 46 44 45 49 43 40 37 37 35 34 34 35 32 28 25 25 24 23 22 24 28 27 31 31 30 32 40 47 67 87 91 95 90 81 76 75 62 56 54 50 51 55 54 50
23 26 30 31 33 44 49 40 38 38 34 33 34 31 30 34 34 36 34 29 26 24 22 22 21 23 30 30 30 30 29 33 36 56 74 90 84 75 84 64 61 59 61 52 53 57 53 42 38

GFSSGP_250_rhum_021.txt.gz
RH
65 88 98 100 100 100 100 75 44 40 76 100 100 100 93 78 62 61 60 64 56 50 44 34 29 30 28 30 30 31 32 32 31 26 22 22 20 20 20 22 19 14 11 14 24 29 38 100 69
66 54 82 81 100 100 100 89 79 49 88 98 100 100 100 94 100 100 99 83 66 44 38 36 30 31 32 33 30 27 24 24 25 26 26 23 22 24 22 23 20 13 12 17 26 34 100 99 54
78 64 60 77 85 87 100 100 83 64 63 76 91 100 88 100 100 100 84 57 41 35 33 35 35 29 28 27 25 25 25 22 19 20 21 22 22 22 23 21 18 12 13 22 29 76 93 47 64
99 64 54 63 76 79 70 100 100 90 82 89 85 81 97 100 100 100 71 53 39 31 30 28 31 31 29 26 24 25 28 26 18 18 21 21 20 19 20 20 14 12 16 29 60 56 45 81 100
100 99 56 56 58 79 68 74 100 100 98 96 90 78 66 93 86 100 72 57 38 46 38 37 39 30 30 32 34 33 30 26 21 17 19 20 19 21 21 17 12 13 19 31 38 42 100 100 100
55 100 79 70 63 80 57 59 59 73 100 100 100 100 100 100 100 100 73 46 54 45 42 38 38 32 30 28 32 42 30 25 22 18 19 21 21 24 20 14 13 16 25 33 43 93 100 100 100
19 92 100 100 80 91 78 62 42 52 57 58 79 100 96 100 94 82 57 39 37 43 50 39 34 25 25 34 37 38 27 21 18 18 21 21 25 24 16 13 15 18 32 49 100 100 100 100 100
19 29 98 100 100 89 100 94 65 47 44 47 38 37 53 53 60 54 50 35 49 40 35 41 27 29 34 40 42 24 19 17 20 22 24 27 33 20 14 13 15 19 35 98 81 100 100 100 100
22 17 27 60 100 100 96 93 100 95 77 63 52 34 36 36 46 41 45 37 32 31 32 36 41 41 43 41 24 16 16 19 21 31 40 41 25 15 12 14 17 20 59 100 100 100 100 99 75
24 21 22 23 58 100 100 100 100 100 84 74 70 64 59 45 42 51 43 36 33 30 42 49 52 48 39 20 17 18 19 23 34 49 49 29 18 13 11 16 20 23 44 100 100 100 100 100 100
30 26 35 24 24 86 100 100 100 73 100 75 93 90 94 89 71 53 42 50 34 48 59 57 46 33 18 17 19 21 31 40 59 57 36 20 18 12 13 18 22 34 72 100 100 100 100 100 100
29 34 43 29 22 28 82 100 100 94 93 75 100 100 100 96 48 62 48 55 63 63 58 33 21 17 18 19 21 40 47 60 54 39 27 23 16 10 17 25 34 59 69 100 100 100 100 100 100
23 43 40 37 23 28 33 64 98 100 88 86 100 100 96 84 65 82 84 75 66 48 24 20 17 17 18 21 40 56 58 50 38 30 29 20 12 11 19 26 56 86 48 78 100 100 100 100 99
23 42 41 37 26 28 32 54 89 99 100 100 100 100 86 90 86 76 76 56 35 23 20 17 16 18 22 38 60 58 51 42 34 27 23 15 13 14 21 40 48 97 93 88 89 100 100 100 81
22 28 42 27 30 35 49 42 100 79 100 100 100 99 95 82 75 54 40 28 22 20 17 16 19 25 40 67 65 58 45 39 31 23 22 16 16 19 27 66 89 87 92 100 96 83 79 79 81
22 24 38 30 31 42 63 82 100 93 100 100 98 92 77 58 43 37 26 22 22 18 18 21 24 63 79 74 59 51 41 30 26 25 23 17 19 20 24 54 84 99 100 100 100 92 83 77 70
22 21 38 32 32 48 67 84 87 85 94 85 66 54 39 36 30 25 22 21 18 20 21 25 52 81 80 72 57 43 31 24 23 25 28 20 23 22 24 30 46 59 68 76 72 66 72 65 46
24 23 34 37 34 53 68 76 84 77 50 50 38 33 31 29 26 22 20 16 16 22 23 68 71 80 83 72 51 31 29 32 34 31 34 28 26 25 22 25 34 45 49 48 52 50 51 67 83
27 25 35 46 37 54 76 76 75 46 36 32 30 27 24 22 19 19 17 15 18 25 45 100 100 81 82 60 50 40 35 28 30 32 37 39 37 35 32 30 30 36 40 45 58 71 86 99 95
26 26 41 49 37 56 69 65 50 48 39 34 30 26 22 19 18 17 16 17 20 28 44 74 90 93 85 69 62 53 39 29 28 30 36 43 52 61 59 60 61 67 74 82 91 100 100 99 92
24 29 48 49 37 56 65 56 46 52 45 35 31 25 21 21 18 16 16 17 19 22 42 64 88 91 94 82 76 58 45 35 32 34 35 33 38 51 61 68 80 86 86 85 77 74 72 72 78
26 31 46 49 36 61 61 54 49 48 48 37 29 25 23 22 19 20 19 18 17 18 21 27 40 55 73 80 81 82 69 68 51 39 38 34 34 36 37 39 45 46 45 43 45 49 51 54 62
28 41 49 46 34 58 64 56 55 50 50 34 30 24 23 21 21 22 21 21 20 16 16 18 22 27 43 62 76 81 61 55 76 76 67 61 52 44 42 43 42 41 42 47 54 58 57 54 55
29 44 45 34 35 58 66 60 52 47 48 34 33 26 25 22 24 25 24 23 21 20 19 18 16 15 18 21 24 23 23 27 32 34 38 46 52 54 62 69 71 68 67 65 66 64 62 61 63
30 40 39 24 42 64 61 57 45 41 54 47 42 37 31 26 24 24 31 24 23 22 23 21 19 18 18 17 16 16 19 20 22 23 24 32 53 55 54 61 72 86 90 84 78 80 87 90 83
31 36 26 25 52 58 65 55 40 44 58 58 48 42 37 32 33 34 31 27 26 25 25 24 21 23 22 20 18 18 20 20 20 22 26 28 29 31 32 37 44 51 63 69 70 81 87 77 84
36 34 22 38 60 55 61 52 41 42 57 59 51 44 39 37 36 35 32 31 28 27 27 27 27 26 23 20 19 19 18 18 20 23 25 26 27 29 31 37 40 40 48 60 73 92 80 78 78
37 30 33 52 53 48 49 44 32 37 52 54 51 40 39 38 37 38 38 34 31 32 35 34 33 30 26 22 20 19 19 19 19 20 22 25 31 31 32 34 39 55 89 95 93 92 88 76 68
28 26 37 49 48 40 41 41 43 34 48 51 47 44 42 40 40 36 36 34 34 33 32 31 32 33 31 26 22 20 20 20 20 20 22 26 30 35 38 45 64 80 99 100 94 80 77 68 58
33 34 37 47 43 38 38 40 45 35 38 45 44 43 40 37 37 39 38 33 28 29 30 30 30 30 30 28 24 21 21 20 20 23 24 31 36 37 49 75 96 100 94 91 88 70 62 56 52

GFSSGP_250_rhum_024.txt.gz
RH
100 98 88 67 94 100 100 100 89 100 80 71 64 74 83 94 100 100 100 59 67 60 61 62 55 48 40 33 29 27 27 26 26 26 23 22 20 21 22 23 22 20 20 21 19 19 16 13 18
98 96 79 59 77 100 93 100 100 100 99 83 64 70 55 89 100 100 98 79 79 98 95 78 55 41 39 37 32 28 29 27 24 24 24 27 26 18 18 19 20 20 20 19 19 18 14 15 23
81 100 84 73 64 100 93 88 100 100 100 92 82 76 46 55 100 100 100 100 100 100 88 61 42 34 28 25 26 28 27 25 25 25 26 29 27 22 19 17 18 21 18 19 20 17 13 18 24
26 100 92 76 64 71 90 90 84 100 100 100 100 96 54 38 78 98 98 100 100 100 100 72 49 40 28 23 22 21 23 24 24 24 23 20 25 26 21 20 21 21 20 21 18 13 14 20 32
18 43 100 100 94 71 76 96 88 91 100 100 100 94 70 38 52 73 99 100 100 100 96 70 49 37 25 23 23 23 25 26 24 22 29 29 25 25 18 19 23 22 22 20 15 13 15 24 48
18 18 65 100 100 73 75 74 79 75 80 100 100 100 75 62 66 58 62 98 100 100 98 71 50 31 22 20 24 24 24 20 21 26 36 32 22 17 17 22 24 25 23 16 13 14 17 30 28
16 17 20 98 100 86 81 83 69 76 86 72 82 93 98 100 98 98 100 100 100 93 81 61 35 24 21 21 24 24 23 24 28 39 36 22 16 17 19 23 29 30 20 13 13 15 19 26 61
17 16 16 31 57 100 100 90 73 73 77 73 67 71 79 100 90 92 100 100 99 82 66 46 35 26 22 20 21 23 28 36 42 39 18 16 18 22 29 38 35 22 15 12 14 17 31 96 100
15 16 17 19 18 47 100 100 76 53 75 81 79 54 50 74 62 66 76 64 61 59 45 41 34 28 24 22 19 31 44 39 26 19 16 17 23 32 50 39 23 16 12 14 17 30 69 93 66
13 17 18 23 18 20 78 100 98 91 67 83 95 45 35 44 47 43 42 39 37 42 32 27 32 30 25 24 28 45 42 23 17 17 19 29 38 47 42 25 20 15 12 17 18 25 80 97 100
14 14 21 27 20 16 32 91 100 100 86 94 94 82 76 51 47 38 43 56 53 44 34 28 37 35 35 40 42 42 19 17 17 19 36 47 49 41 26 23 20 12 12 17 20 23 67 100 100
15 14 18 26 26 15 22 57 90 100 100 100 86 95 78 96 88 70 75 48 48 53 52 46 50 61 62 53 38 19 15 16 18 30 54 50 40 25 21 20 15 11 14 20 24 26 74 100 100
20 18 16 22 26 17 17 25 38 65 99 100 96 96 96 100 100 94 100 80 100 96 36 40 62 62 57 33 18 15 17 21 28 47 51 40 33 21 21 16 12 11 16 23 26 30 49 100 100
25 22 18 19 23 21 17 26 26 26 47 93 100 100 98 87 85 93 100 100 99 80 62 76 64 46 26 19 15 16 20 29 58 61 44 39 31 26 23 17 14 14 15 28 36 57 58 62 90
29 23 22 18 21 24 20 25 32 29 18 65 100 100 89 97 83 97 86 82 98 73 68 61 36 26 19 16 18 23 41 73 68 54 42 32 29 30 26 18 16 17 20 24 36 54 91 60 65
27 24 22 24 20 26 26 38 46 32 19 34 71 100 100 100 100 99 91 91 82 74 59 40 26 19 17 19 23 54 72 70 64 50 35 28 30 26 28 22 20 20 18 35 47 65 68 67 74
24 22 23 28 20 26 26 50 43 33 21 41 74 92 93 100 100 100 100 92 72 55 42 23 18 17 18 22 60 81 78 79 59 33 27 24 25 26 27 28 26 25 20 20 38 59 58 58 60
31 27 28 28 21 25 28 49 37 31 29 61 85 98 100 100 100 90 72 50 42 30 22 18 16 18 21 44 72 84 89 81 48 36 35 28 26 26 27 32 37 37 32 27 21 23 30 36 40
23 22 24 26 26 25 28 51 40 32 34 96 100 100 100 98 76 64 38 28 24 20 19 16 17 18 40 87 83 75 90 67 63 56 41 30 30 34 33 33 36 42 51 50 47 47 49 54 58
17 19 25 25 27 25 30 51 39 34 57 100 100 92 86 64 52 30 25 21 20 18 17 17 20 25 46 68 84 83 84 72 76 64 52 40 37 37 38 38 37 40 44 51 59 65 68 72 74
17 16 24 23 34 28 30 49 51 35 85 98 84 72 52 34 28 24 21 20 18 17 17 18 20 24 41 51 57 61 57 71 76 74 67 62 67 71 68 64 53 50 43 40 40 41 41 46 48
14 17 25 27 28 27 34 54 59 28 79 70 65 41 33 30 26 23 22 21 20 18 20 17 16 18 20 24 27 35 46 54 49 33 27 26 31 38 40 50 58 54 56 66 67 68 68 70 69
23 19 24 25 26 37 33 49 54 36 84 74 50 39 34 29 25 26 26 24 22 22 21 18 18 18 17 17 17 17 17 16 16 17 19 20 18 18 19 20 21 23 26 28 28 28 28 30 28
25 25 26 30 27 31 35 52 50 42 75 63 54 47 36 32 26 29 26 24 26 26 22 19 20 18 20 21 21 19 19 18 17 16 15 15 16 16 16 17 19 20 20 21 22 22 26 27 26
26 42 44 60 28 26 44 55 41 59 62 54 52 50 42 32 28 31 27 28 31 28 26 24 23 23 23 24 24 25 25 22 20 18 17 16 15 16 16 16 16 16 17 16 17 21 23 25 27
17 30 35 22 26 31 38 48 38 63 56 51 50 49 45 34 30 31 30 29 27 28 28 25 28 28 29 29 31 30 28 26 24 23 21 19 17 16 16 16 18 16 16 15 19 24 26 32 43
39 41 25 29 46 42 48 62 55 65 57 54 53 48 45 39 35 35 37 35 37 34 33 33 33 34 33 30 28 28 26 25 27 28 26 23 20 18 18 19 19 18 17 20 26 31 36 55 74
61 32 24 33 41 40 49 53 62 65 62 55 53 53 46 47 45 44 43 39 39 38 38 37 35 32 30 30 29 27 25 25 25 24 25 25 23 22 21 20 20 20 23 32 42 57 75 86 93
45 42 35 53 42 48 48 49 60 72 65 55 51 49 48 51 48 43 38 39 38 42 44 39 39 30 28 29 29 28 26 26 27 27 26 26 25 23 21 22 22 26 42 57 72 84 90 80 80
34 32 39 44 44 46 45 60 65 63 61 53 51 45 48 49 41 37 42 44 43 43 40 36 32 32 31 29 28 27 27 28 28 27 26 25 23 22 23 26 29 41 69 80 80 90 87 83 75

GFSSGP_250_rhum_027.txt.gz
RH
24 56 67 63 91 70 87 52 80 100 100 100 83 70 50 44 53 49 69 100 100 100 95 72 60 61 67 65 50 39 33 27 25 21 21 21 21 22 24 26 30 32 28 20 18 19 20 22 22
17 22 34 57 82 92 77 68 78 100 100 100 94 85 58 49 58 59 88 100 100 100 96 91 95 96 89 66 57 41 31 26 24 25 24 22 21 23 23 22 23 22 23 24 20 18 19 23 21
15 16 18 42 71 100 92 76 62 88 95 100 92 99 74 60 54 45 66 100 100 100 100 100 100 100 88 75 66 47 33 28 23 20 20 21 23 24 24 24 27 24 21 24 21 18 18 20 22
15 14 14 16 30 62 87 98 73 89 78 94 100 97 94 87 77 55 48 90 100 100 100 100 100 100 94 86 64 46 32 22 19 20 19 20 26 26 21 21 30 27 27 19 17 17 19 21 23
15 14 14 16 60 100 81 83 100 91 86 99 91 83 100 100 86 60 57 68 82 100 100 100 100 100 100 87 62 45 26 20 18 18 20 26 25 21 23 25 33 28 19 16 17 19 22 23 23
14 14 14 16 17 62 100 100 100 94 84 100 100 99 94 95 100 90 81 76 66 69 94 100 100 100 93 90 55 32 24 20 18 16 20 23 22 27 27 25 21 15 15 17 20 22 27 27 18
12 13 14 15 17 16 87 100 100 97 87 100 100 88 94 89 64 100 97 82 67 60 80 100 100 100 93 68 53 38 26 21 19 17 17 20 26 32 25 19 16 16 19 29 34 36 29 18 14
11 10 13 15 19 17 26 81 100 100 98 82 100 83 83 89 92 49 91 100 100 100 96 100 100 100 91 67 48 35 30 25 22 19 17 22 34 29 17 15 17 21 32 42 42 28 18 15 14
12 10 14 16 18 21 15 36 100 100 100 90 89 79 80 83 90 79 66 77 100 100 91 99 100 95 62 54 45 30 24 21 24 24 22 36 31 17 16 19 26 42 49 41 28 19 15 14 16
16 13 13 15 15 20 16 18 46 100 100 100 100 73 75 79 90 88 83 73 80 92 85 71 75 64 45 36 30 27 24 24 26 41 49 30 16 15 18 28 50 57 43 27 20 17 14 15 18
20 21 16 15 14 15 16 14 27 65 92 100 100 83 67 92 100 90 64 76 75 64 54 54 50 40 39 36 34 27 27 30 39 50 27 16 14 20 25 52 56 42 26 22 19 15 12 16 20
20 21 19 17 14 13 14 15 21 29 50 90 94 96 62 65 71 70 75 66 58 54 49 46 45 46 45 47 34 32 35 43 48 24 15 15 19 24 53 57 43 35 26 22 15 11 13 18 22
23 22 22 21 16 13 13 15 18 25 23 50 82 100 92 74 78 71 71 74 75 54 51 47 54 56 95 68 73 44 45 48 26 16 17 22 28 52 63 51 37 24 24 22 16 13 13 19 25
27 27 23 23 20 15 13 17 18 25 23 23 78 99 99 77 86 84 81 78 68 81 97 72 71 93 82 90 70 54 51 30 17 17 26 44 56 65 53 39 28 24 25 23 17 16 15 20 25
31 27 28 31 26 20 14 15 18 32 30 25 36 95 100 100 100 74 72 74 80 90 100 79 100 100 100 100 72 50 34 18 16 19 34 61 69 60 39 24 20 22 25 24 20 20 20 19 24
38 31 29 37 34 27 15 19 26 24 34 26 20 41 48 87 100 100 99 100 85 84 86 70 73 81 77 62 58 42 21 16 20 38 63 76 71 46 28 27 24 23 27 28 26 26 25 19 22
45 42 34 34 38 26 17 20 28 20 34 24 22 33 30 24 64 100 100 100 100 100 92 81 98 86 73 52 52 23 16 20 37 75 97 89 64 50 41 28 24 26 29 29 30 34 35 31 24
80 56 34 38 35 27 22 21 33 21 40 24 27 26 37 24 46 76 100 100 100 100 100 100 97 85 61 37 26 15 18 37 75 81 94 94 79 71 52 36 31 36 37 34 33 36 37 41 49
56 40 36 37 36 25 22 22 43 22 30 23 40 24 41 30 35 66 97 100 100 100 94 87 68 42 23 18 16 18 23 82 84 73 92 87 84 81 67 62 50 45 48 51 46 42 40 37 38
56 46 44 43 35 28 28 26 48 25 30 24 47 32 37 42 44 98 100 100 90 80 59 35 23 20 19 17 19 22 38 53 76 66 64 61 72 66 53 43 42 47 50 45 48 56 58 54 53
69 46 58 48 41 28 25 22 35 30 27 26 46 37 33 46 50 100 98 77 50 34 25 22 21 19 18 20 19 20 22 26 30 38 42 42 39 27 22 19 18 18 17 18 21 24 29 33 32
59 75 67 54 44 24 28 24 33 36 35 32 49 28 29 84 80 99 77 56 29 24 22 22 21 19 18 18 18 18 18 18 18 18 17 16 15 15 15 14 14 14 14 14 14 16 18 20 20
33 28 36 38 37 28 24 22 32 38 26 33 48 34 76 100 84 75 51 30 26 24 23 24 24 23 21 21 20 20 20 20 19 18 18 20 22 21 21 21 20 18 16 15 15 14 14 15 15
26 19 19 24 29 19 24 21 40 34 34 48 44 37 72 93 73 42 32 27 30 28 29 26 26 25 25 22 21 23 24 25 23 22 23 23 24 23 22 21 21 20 19 18 17 16 15 14 15
8 10 13 18 19 20 28 25 41 31 41 56 35 48 90 73 50 34 31 29 30 34 30 28 28 28 27 26 25 26 29 31 28 26 24 24 24 23 22 22 22 20 19 18 18 16 16 17 17
6 8 12 23 24 23 26 28 38 35 41 48 35 51 82 55 41 34 33 31 33 34 30 28 30 29 28 28 30 29 30 29 27 25 23 24 23 23 22 22 20 18 17 16 16 16 16 17 17
6 10 21 45 29 23 22 29 35 35 42 50 53 69 77 56 47 39 36 34 35 32 32 34 31 33 34 33 33 32 30 28 28 27 25 25 25 23 23 21 19 17 16 15 15 16 18 18 19
9 16 31 33 31 28 32 38 48 57 55 63 71 77 74 57 53 50 41 36 37 35 39 46 40 41 38 34 35 33 27 31 31 28 25 24 25 25 24 21 18 16 16 18 18 20 22 26 32
19 40 49 69 82 38 33 34 44 44 54 59 66 70 66 55 55 51 46 42 39 41 47 48 45 40 37 37 35 32 33 33 31 28 25 25 26 27 25 21 18 20 21 21 24 30 34 44 60
90 100 100 99 42 40 29 48 65 51 58 60 68 66 58 51 51 49 48 50 47 55 56 52 45 43 43 40 38 38 35 34 31 27 25 28 29 27 24 19 21 24 25 31 34 39 53 62 66

GFSSGP_250_rhum_030.txt.gz
RH
17 19 29 68 100 100 100 96 71 73 68 94 90 97 57 62 64 52 54 48 50 77 96 100 100 91 100 72 65 70 71 57 44 37 31 26 24 23 21 20 18 18 21 23 23 22 23 25 23
15 16 19 32 60 100 100 100 92 83 83 78 66 80 94 72 62 72 68 71 63 59 71 100 100 100 95 76 79 98 83 63 57 50 42 32 27 22 18 17 15 17 22 25 25 25 26 23 22
13 15 15 17 27 90 99 100 100 100 84 87 52 70 91 99 79 64 71 83 84 74 75 82 91 100 96 89 100 100 90 84 76 58 43 29 23 20 17 16 18 23 30 26 23 20 19 28 28
14 14 13 14 16 22 59 100 97 100 99 80 78 59 70 100 100 78 71 76 76 86 88 100 98 95 91 100 100 100 100 84 83 57 38 24 22 19 16 16 20 26 27 23 27 22 21 18 17
12 14 14 14 18 17 18 70 80 100 100 100 87 85 71 77 99 100 83 82 83 89 89 93 100 99 96 100 100 100 100 93 76 44 32 26 22 19 16 16 17 20 22 26 22 19 16 15 15
12 12 13 16 17 16 16 16 77 100 100 100 100 85 99 78 73 88 100 98 94 97 92 94 100 100 100 100 100 100 100 99 77 55 47 33 26 22 20 19 17 16 22 26 20 15 15 19 24
11 13 12 15 16 16 16 16 17 99 100 100 100 99 100 86 64 67 77 100 100 100 100 87 80 72 85 100 100 100 100 98 79 68 48 33 24 19 18 18 22 25 25 18 15 16 21 29 40
17 12 13 14 17 16 16 18 15 16 32 62 97 92 100 94 78 67 87 74 71 92 100 100 100 96 92 88 100 100 98 94 66 41 30 22 23 20 22 26 35 26 18 14 16 25 47 54 54
20 19 19 15 14 16 12 15 16 16 29 91 100 93 91 98 100 99 100 100 90 81 74 90 100 100 97 100 99 99 100 96 63 41 28 26 24 21 29 29 24 16 15 20 29 42 56 56 41
21 23 24 21 14 13 10 12 15 18 15 29 86 100 100 89 100 100 98 99 93 69 76 71 76 93 100 94 86 89 89 69 41 30 29 26 22 29 35 24 15 16 20 32 52 64 49 33 26
24 27 25 25 21 16 12 12 14 20 18 16 34 89 100 100 100 100 100 86 82 100 83 68 65 76 80 75 76 75 63 51 40 33 41 40 31 35 33 16 16 20 36 59 62 47 33 25 23
26 24 27 28 24 21 16 12 14 18 28 16 17 25 83 100 100 100 96 93 93 89 90 88 77 74 79 84 69 58 51 43 53 67 77 52 35 39 20 17 22 45 64 58 47 37 25 23 20
28 24 24 30 24 24 21 15 15 18 24 18 18 20 44 94 98 100 93 78 81 80 75 80 75 72 64 61 67 59 46 44 48 75 87 66 41 30 16 24 37 59 55 48 34 26 24 26 22
34 30 25 26 30 25 23 21 14 17 21 18 17 19 24 61 100 100 94 80 91 80 85 81 76 72 66 61 60 54 57 64 99 100 87 51 40 19 21 36 61 59 52 32 25 23 24 27 23
45 36 29 24 28 29 23 20 17 20 18 19 18 17 22 32 44 100 100 97 90 87 74 69 59 62 65 59 83 99 74 84 91 88 67 44 36 19 34 58 74 62 40 31 24 23 24 25 27
50 45 36 32 28 30 24 27 25 27 15 18 19 17 18 22 25 78 100 99 94 89 88 67 61 78 70 78 100 82 70 72 78 65 55 36 21 24 51 76 80 69 52 39 29 26 31 31 30
57 65 50 45 39 32 26 40 33 32 18 17 21 16 19 23 28 41 96 100 99 88 95 80 61 86 91 100 94 65 88 90 70 63 34 20 23 49 77 88 83 69 60 52 42 36 38 39 39
75 62 47 43 43 32 27 35 42 33 22 18 19 19 22 26 26 27 72 86 100 100 100 87 89 96 100 100 99 100 90 78 65 32 18 21 48 71 78 79 78 70 74 63 50 46 47 50 48
62 63 54 46 50 38 38 32 39 36 27 23 22 20 18 30 26 24 32 40 53 100 100 99 97 100 100 100 100 100 70 61 24 18 22 31 53 86 67 68 68 62 46 38 36 30 26 26 24
63 69 64 55 60 52 41 40 33 44 33 27 25 23 19 28 32 26 24 24 35 56 99 99 100 100 100 99 84 62 27 19 18 23 28 28 30 35 45 46 40 33 20 15 15 15 14 14 14
84 84 76 63 60 46 47 37 31 42 38 26 30 26 24 32 32 27 29 30 33 56 71 100 96 86 70 42 24 21 20 22 24 23 22 21 19 19 18 17 16 17 17 17 18 18 19 19 17
91 98 86 75 73 60 47 41 32 40 40 27 33 24 36 46 33 24 41 31 50 87 97 83 70 42 26 24 22 22 20 20 20 21 21 19 18 18 19 19 20 20 19 18 18 19 20 20 18
85 80 82 81 73 62 47 34 36 44 40 34 34 27 39 55 40 26 51 56 89 100 83 49 34 26 24 25 25 23 20 22 24 24 23 20 21 23 24 22 22 20 18 18 19 18 16 15 14
58 71 72 79 80 47 59 30 42 35 43 36 32 29 46 59 46 26 54 71 99 94 60 38 27 25 24 27 26 26 24 26 28 27 25 27 27 25 23 24 22 20 19 18 19 18 16 14 14
22 31 33 37 33 18 51 21 40 46 41 34 30 33 53 51 48 29 52 84 97 73 48 35 29 29 29 31 29 27 31 31 31 30 31 30 26 25 25 23 22 21 20 19 19 18 17 17 14
6 8 10 12 14 23 42 17 50 52 32 30 30 38 48 44 46 25 74 100 80 59 37 31 33 32 32 32 33 33 33 33 32 34 33 31 28 28 26 25 24 21 20 18 18 19 18 16 14
6 5 11 8 11 27 38 31 95 56 27 29 29 48 53 51 47 28 97 88 56 39 34 30 31 34 36 35 32 31 29 33 37 35 32 28 28 29 29 24 22 20 19 20 21 18 16 16 16
4 4 4 6 12 21 34 33 76 26 28 30 34 65 50 49 43 49 97 69 47 36 35 34 32 37 40 36 38 37 36 38 37 34 28 28 30 32 28 26 21 20 22 24 21 18 17 18 20
4 6 8 9 17 35 26 39 37 30 33 36 44 69 48 39 43 67 85 54 42 39 36 38 40 42 43 41 42 42 42 39 35 31 30 34 35 34 28 22 21 25 28 24 20 19 22 23 28
13 7 19 23 28 50 62 50 28 34 32 33 49 52 42 40 45 88 80 54 46 41 42 45 46 46 49 48 49 50 46 40 36 34 37 38 37 30 25 22 28 31 26 21 22 25 33 40 38

GFSSGP_250_rhum_033.txt.gz
RH
30 30 27 23 23 22 27 49 64 90 100 86 62 39 43 78 70 48 62 71 49 38 40 49 52 60 79 100 92 92 100 89 59 64 64 55 43 37 43 33 26 23 21 19 17 16 15 17 23
17 19 21 22 20 20 19 25 36 81 100 88 59 52 33 47 82 97 64 55 75 60 46 40 46 58 71 94 100 88 83 72 67 70 72 66 66 56 46 42 34 27 22 20 16 15 15 19 19
14 13 13 15 16 18 22 35 70 100 100 100 84 74 55 48 46 77 95 63 67 80 66 52 48 44 51 64 96 100 96 72 73 79 90 86 80 64 49 33 27 24 24 17 16 16 15 17 22
12 12 12 12 15 16 20 26 54 100 100 100 100 90 78 68 75 72 100 94 64 73 82 78 66 61 62 61 76 98 100 100 100 91 87 90 87 72 49 37 34 32 25 19 16 16 16 17 16
12 11 12 12 16 16 16 17 20 100 100 100 100 100 100 100 99 69 61 98 100 87 93 93 83 74 72 74 97 100 100 100 100 100 100 96 95 88 63 55 47 36 28 22 17 17 22 23 20
11 12 12 16 15 11 15 15 17 23 56 100 100 100 100 100 100 99 59 59 99 100 99 98 100 90 85 79 90 100 100 100 100 99 99 89 100 88 78 56 37 28 20 18 19 23 21 17 18
13 11 12 15 16 12 13 14 17 16 16 90 100 100 100 100 100 100 90 57 63 86 100 100 100 99 84 82 77 84 100 100 100 100 100 100 99 90 74 51 26 20 20 24 28 26 17 14 15
20 18 18 16 17 16 12 12 15 16 16 18 30 100 100 100 100 100 100 100 86 78 91 100 100 100 100 100 100 96 74 76 96 100 100 100 100 99 74 32 22 21 31 29 31 25 14 15 18
21 22 28 30 26 20 11 12 11 14 15 17 17 45 100 100 100 100 100 100 100 78 93 95 85 93 97 96 99 100 98 100 100 98 89 78 79 71 53 37 26 28 36 33 27 17 15 20 33
16 20 29 28 25 24 14 12 14 13 15 16 17 16 18 94 100 100 100 100 100 92 78 85 83 85 84 74 76 85 87 80 78 65 65 66 63 55 42 31 48 50 46 32 25 15 20 37 55
17 20 24 29 27 24 17 17 15 15 16 16 15 17 15 18 100 100 100 100 100 100 98 80 89 85 85 85 71 69 81 93 80 77 76 67 58 43 36 44 71 65 49 36 20 17 38 54 50
21 20 23 29 24 24 21 18 19 17 18 16 12 14 17 18 20 40 79 100 100 100 100 100 99 98 96 93 79 79 67 68 70 71 73 65 54 46 48 67 82 73 40 39 17 32 53 53 40
34 29 26 30 26 25 22 20 19 22 20 17 14 11 13 17 18 24 44 87 100 100 100 100 84 81 92 100 97 90 85 74 69 71 64 58 52 48 64 67 63 53 41 31 23 48 56 45 33
35 37 32 31 32 27 24 21 16 23 29 21 17 13 12 16 19 20 25 33 74 100 100 100 94 94 85 84 87 90 84 76 73 62 60 54 63 62 60 58 60 56 34 23 42 55 56 46 36
37 34 35 34 36 32 28 23 22 28 26 27 22 15 12 14 17 22 27 29 44 92 100 94 92 90 85 86 80 80 71 64 64 60 59 55 80 63 62 68 60 52 30 40 69 67 66 55 49
43 37 38 41 40 37 25 33 28 29 25 24 26 19 14 12 15 21 27 27 33 63 88 80 69 69 80 84 83 67 71 65 59 58 61 80 67 62 69 65 55 22 34 56 70 68 61 62 58
57 50 49 45 41 36 27 39 33 24 27 20 24 24 16 13 15 18 25 24 30 39 82 72 72 70 68 71 78 73 69 62 68 68 97 99 79 75 75 63 21 28 62 74 66 68 73 53 42
50 46 46 45 46 40 39 38 48 32 24 29 22 24 20 15 17 16 20 23 27 32 53 87 83 60 77 88 81 80 89 100 93 100 100 100 91 83 62 19 19 33 53 51 61 63 40 27 21
49 54 50 48 47 45 45 38 55 41 24 29 29 26 25 18 19 18 17 22 26 27 32 94 98 88 80 74 94 100 100 100 100 100 100 99 83 47 17 21 24 24 27 30 27 22 18 20 22
61 59 54 52 56 45 47 44 54 52 34 27 36 32 29 25 21 20 19 20 23 25 25 61 84 100 100 100 100 100 100 100 100 100 93 80 27 24 24 22 23 20 20 20 22 22 22 20 20
52 56 47 48 56 47 43 41 46 57 38 32 41 39 32 31 29 25 25 25 25 26 26 31 44 72 86 99 100 100 100 100 98 74 34 25 26 25 21 20 20 21 20 23 22 24 22 20 19
53 50 38 38 45 45 37 38 45 63 47 40 43 47 38 39 34 30 36 32 31 25 26 24 24 50 89 100 100 100 91 65 45 29 29 27 24 22 22 22 24 23 24 25 23 22 22 23 21
42 39 36 41 48 48 40 33 49 60 56 48 50 49 45 42 40 39 36 30 39 31 28 23 26 72 92 96 81 58 37 29 28 27 26 24 24 25 25 25 26 29 26 22 22 21 23 23 21
39 42 42 43 45 34 43 26 43 70 61 55 50 45 41 42 44 42 41 32 54 36 27 24 52 89 96 66 47 31 31 29 27 28 29 31 28 28 27 27 29 29 24 23 23 22 20 20 20
39 39 39 41 37 24 45 33 45 88 68 68 59 48 34 39 41 46 51 36 55 32 24 28 79 100 76 52 34 30 28 29 30 31 36 34 32 31 29 30 30 29 25 24 24 23 24 24 21
30 26 24 24 23 21 51 31 37 99 98 98 75 50 36 40 44 50 48 34 52 36 31 42 78 95 67 46 35 30 30 35 34 33 36 32 31 31 30 35 33 27 26 28 26 28 28 22 19
8 6 5 4 4 7 15 23 30 73 100 97 87 66 41 41 48 56 54 41 51 49 38 62 85 91 63 48 38 34 35 35 32 33 33 36 35 37 37 35 31 30 31 29 31 31 23 21 21
4 4 4 4 6 6 7 13 21 59 100 95 84 77 43 41 48 60 44 41 65 64 54 64 86 76 60 45 35 37 37 37 38 37 37 41 42 41 39 33 34 32 31 33 31 25 22 24 23
5 4 3 3 5 6 10 21 39 68 84 89 80 70 40 42 54 74 64 45 82 70 65 91 84 64 52 41 35 40 38 39 41 40 42 48 43 42 40 38 34 32 33 32 27 23 25 24 20
7 7 6 5 6 6 10 25 78 72 69 68 69 62 34 42 52 61 51 42 67 77 84 86 72 55 41 39 38 40 46 49 48 52 49 45 45 46 41 38 34 35 34 29 25 26 26 20 20

GFSSGP_250_rhum_036.txt.gz
RH
44 34 23 26 40 44 42 59 65 76 99 100 100 89 91 64 57 41 59 49 37 27 38 34 32 34 36 40 47 51 66 99 85 75 88 83 53 68 61 54 53 54 45 44 43 37 30 28 23
31 30 32 37 38 40 41 38 44 52 83 91 93 94 89 99 77 59 51 71 56 43 34 39 39 38 42 41 42 52 66 97 90 72 62 42 43 65 75 72 72 60 52 44 38 35 38 33 28
37 31 28 30 31 32 31 32 30 35 59 100 100 77 96 94 94 78 61 65 80 65 53 47 43 43 41 48 47 46 49 57 79 91 68 65 64 63 64 58 68 72 68 62 52 46 34 31 27
20 16 15 14 15 17 18 19 23 25 32 33 74 73 92 96 100 96 74 62 68 96 96 82 64 51 44 41 48 54 56 52 51 56 78 77 76 60 54 83 91 71 93 81 68 50 31 18 17
16 13 11 12 14 14 14 15 17 20 22 24 26 76 88 100 100 100 91 80 58 58 93 100 92 70 58 48 48 52 60 64 61 53 81 83 91 88 58 80 86 91 75 78 69 55 25 20 19
14 13 12 13 13 13 12 12 14 16 19 19 24 60 97 100 100 100 99 92 84 89 66 86 100 93 77 70 69 65 56 55 59 49 73 90 100 93 94 94 79 62 70 92 78 52 32 21 19
18 17 18 18 16 14 12 11 12 13 15 17 22 57 100 100 100 100 100 100 100 100 100 82 87 100 100 96 87 81 73 68 59 55 59 85 100 100 90 100 89 99 99 60 52 37 22 32 25
19 19 21 20 17 13 12 11 10 11 12 14 17 18 23 100 100 100 100 100 100 100 100 100 100 91 100 100 100 100 96 87 78 80 95 99 100 100 100 100 89 66 54 43 38 27 27 37 30
19 22 25 24 23 21 11 10 10 10 11 11 14 16 16 43 94 100 100 100 100 100 100 100 100 92 67 79 88 90 93 98 100 100 85 90 80 80 85 85 65 62 57 53 40 34 39 43 31
22 23 27 25 24 22 14 14 12 11 12 12 13 14 16 16 21 33 98 100 100 100 100 100 98 100 97 95 91 78 82 88 89 96 89 84 65 77 84 77 72 61 61 52 40 40 40 40 39
27 26 30 29 23 19 16 16 15 18 14 14 12 11 13 15 16 18 37 86 100 100 100 100 100 100 100 100 100 94 92 94 84 84 77 69 63 70 80 75 76 66 58 40 40 43 44 46 50
34 29 30 34 27 20 17 17 22 25 25 18 13 12 12 14 16 19 19 21 50 100 100 100 100 100 100 100 100 100 100 96 94 80 70 76 74 72 66 68 67 64 51 43 40 46 46 58 47
38 38 33 34 34 25 18 17 18 23 27 24 20 16 13 13 15 17 18 18 18 30 65 99 100 100 100 100 100 100 100 100 90 84 83 79 87 80 79 77 70 58 46 42 63 54 61 52 28
49 46 42 35 37 37 29 25 18 28 28 26 20 17 14 13 14 14 17 18 18 18 19 41 84 95 93 100 99 99 100 100 97 91 99 90 93 84 77 68 60 44 37 64 75 64 65 30 30
46 38 46 45 40 34 31 31 31 25 22 24 23 18 16 12 12 14 14 17 18 18 19 20 25 40 52 76 88 90 89 96 86 91 95 88 84 75 78 67 57 46 60 93 83 72 41 24 36
63 47 46 48 43 38 29 36 31 27 22 24 22 20 17 18 14 13 13 15 17 18 19 20 20 21 21 40 74 82 81 93 92 88 91 83 84 83 85 76 61 60 86 97 82 35 19 21 31
67 56 43 46 46 43 33 32 36 28 26 29 26 22 21 20 19 18 17 16 18 19 19 20 23 23 21 34 42 53 73 69 62 63 71 81 87 95 92 97 100 89 98 89 53 20 18 23 24
76 66 49 40 47 42 40 31 42 37 25 27 27 27 22 23 26 22 24 20 20 20 20 20 24 21 21 27 43 54 57 51 60 66 70 80 100 100 100 100 100 92 93 49 25 22 20 20 19
90 63 45 48 51 52 42 36 42 44 29 27 31 32 26 24 29 25 26 28 25 22 22 21 25 24 23 29 41 57 53 59 55 80 92 100 100 100 80 96 99 96 48 29 23 22 21 21 24
79 78 64 48 52 44 45 33 35 45 40 34 38 38 34 26 28 27 28 29 27 29 26 24 23 27 24 22 25 77 81 96 95 100 100 100 100 100 100 100 82 44 26 22 22 22 22 22 24
81 63 59 48 52 45 42 36 33 44 41 38 36 48 42 38 27 33 29 31 29 30 32 27 27 26 27 25 22 67 100 100 100 100 100 100 100 100 94 61 30 26 23 22 25 26 25 25 26
51 50 54 56 46 52 50 32 37 37 46 55 53 49 56 46 30 34 36 32 35 30 33 32 32 29 30 26 25 61 80 100 100 100 100 100 96 77 50 40 27 24 24 27 29 28 27 29 28
57 63 48 42 43 44 50 24 45 42 45 64 70 63 68 61 41 37 43 38 34 33 33 32 35 31 32 26 25 43 81 99 100 98 94 64 52 38 29 27 27 28 29 31 30 29 29 28 29
52 48 41 30 27 20 39 24 30 52 45 59 75 71 71 70 55 38 43 42 35 39 42 37 30 30 34 28 34 45 68 82 91 80 59 45 35 30 29 31 34 36 38 36 33 30 28 32 33
30 26 24 25 25 16 22 24 26 42 62 61 75 81 91 79 58 50 51 49 42 39 50 46 31 30 33 31 37 77 84 96 64 50 35 34 32 32 33 37 39 41 36 33 29 30 34 37 33
39 36 33 25 21 16 19 17 25 41 45 70 72 99 96 91 61 58 57 56 48 43 50 46 33 37 36 34 54 88 100 68 55 38 37 36 32 36 38 37 34 33 34 35 34 35 37 35 34
31 20 19 16 15 12 15 14 22 39 33 50 68 63 93 96 73 59 50 56 51 49 52 52 38 42 37 38 80 94 99 69 54 42 37 35 36 39 39 39 38 37 39 42 40 39 40 37 36
38 26 12 5 4 4 4 4 11 26 32 60 77 48 82 90 79 63 52 58 51 51 49 63 50 44 38 46 80 86 98 76 59 47 42 46 41 38 39 39 40 43 47 46 44 40 40 38 33
29 26 11 5 4 3 3 3 5 13 29 62 90 76 70 93 78 68 62 64 56 54 54 74 61 46 45 56 81 85 95 78 63 54 43 42 40 39 45 49 50 51 51 48 47 46 40 36 31
76 53 12 7 4 3 3 4 4 6 20 60 80 83 81 85 83 74 65 64 57 52 54 77 60 48 48 64 84 90 90 70 62 52 44 41 41 51 57 57 56 55 52 48 46 41 36 33 30

GFSSGP_250_rhum_039.txt.gz
RH
34 38 49 39 35 46 40 28 24 22 33 53 39 36 49 86 57 52 70 66 51 38 36 27 23 24 24 31 37 44 49 49 51 54 61 100 74 58 61 60 49 60 69 78 74 62 51 57 47
47 53 68 55 49 52 47 43 29 25 30 44 57 41 46 80 77 64 59 78 75 57 42 38 32 24 22 26 33 35 37 40 42 53 56 88 91 64 76 70 72 71 63 56 64 61 52 50 59
70 74 71 67 55 45 34 34 29 33 39 32 42 38 55 69 80 84 63 78 94 85 59 47 44 41 33 24 28 33 35 41 48 48 56 55 51 56 71 66 61 60 55 48 74 68 65 60 42
79 73 59 48 46 38 33 30 27 30 37 39 37 39 43 64 62 73 96 98 100 100 89 65 54 55 54 39 31 36 44 47 46 49 50 47 47 45 48 59 72 62 62 58 53 53 48 39 47
64 53 42 31 28 28 27 28 27 24 31 37 37 35 39 45 57 72 81 95 100 100 100 91 68 61 60 69 47 45 52 52 48 48 46 43 40 42 39 51 82 84 78 60 58 56 52 51 91
48 31 25 23 21 22 22 21 19 18 21 21 23 26 31 36 39 70 98 95 98 100 100 100 95 80 74 75 94 80 58 56 47 45 52 49 41 38 42 42 75 99 100 94 90 75 64 79 55
38 26 19 18 18 16 17 16 14 14 14 14 14 16 19 22 31 57 77 88 96 100 100 100 100 99 95 82 89 100 97 79 62 51 53 58 61 56 51 50 62 78 100 94 88 100 99 69 53
24 18 18 18 18 16 14 13 12 11 11 11 12 13 15 19 22 33 32 34 71 97 100 100 100 100 100 100 88 81 96 100 100 92 87 90 91 85 78 85 84 73 77 88 83 94 80 61 52
21 21 22 20 18 19 14 14 14 12 12 11 10 12 13 14 17 19 20 25 69 72 94 100 100 100 100 100 100 100 98 90 100 100 100 100 95 85 83 83 90 83 76 60 85 73 70 67 59
24 23 26 24 23 19 15 16 15 16 15 12 12 12 12 12 14 17 20 26 95 100 89 89 100 100 100 100 100 100 100 97 95 80 80 94 84 76 69 82 82 81 72 63 64 70 74 62 59
30 29 30 29 26 24 19 17 17 18 19 16 13 12 12 12 12 14 18 19 19 45 98 100 92 86 100 100 100 100 100 100 100 96 94 83 98 84 76 82 81 77 82 78 64 66 68 67 48
45 42 38 40 35 31 23 18 19 19 21 17 17 15 12 10 11 12 12 16 17 18 26 88 100 98 79 78 88 100 100 100 91 89 86 87 95 100 97 84 80 80 79 88 86 78 70 58 50
49 54 46 41 38 37 28 23 21 24 23 18 14 14 17 16 12 12 13 12 14 17 17 27 48 71 100 94 85 88 94 93 90 92 91 83 96 94 98 98 86 88 92 88 87 82 71 62 55
54 58 53 50 47 38 32 31 22 29 24 19 16 16 19 22 19 14 13 12 12 14 15 15 18 19 36 72 98 99 92 83 83 86 86 87 84 95 94 99 98 96 97 95 93 80 73 69 77
69 60 59 62 54 45 41 38 35 27 24 25 20 16 17 23 23 23 20 15 13 14 14 15 16 18 19 20 23 55 71 85 82 77 70 78 86 94 96 99 100 95 99 91 85 76 72 87 100
100 86 83 78 58 44 40 45 38 33 28 28 26 24 22 21 24 24 23 24 21 16 14 14 17 18 20 19 19 20 21 29 43 58 60 58 67 80 94 100 100 91 89 88 82 85 78 90 100
75 90 100 99 78 67 47 41 45 38 36 34 33 31 29 27 22 22 23 25 24 24 20 16 17 18 18 19 19 21 19 17 17 19 27 40 50 66 83 90 88 80 90 89 85 93 92 97 92
71 87 99 100 100 96 65 37 42 40 38 38 34 34 34 34 31 23 22 22 27 26 26 20 17 18 18 19 19 21 21 19 43 48 30 42 60 68 68 68 97 98 100 88 100 100 100 92 54
82 66 68 70 100 100 90 54 40 45 39 45 43 37 37 37 31 25 23 22 26 28 26 25 22 17 18 19 19 20 25 25 37 25 30 35 60 66 89 99 86 100 100 100 100 100 88 62 31
84 77 79 87 83 63 66 63 60 56 49 46 50 41 41 44 36 30 26 25 25 29 28 27 26 22 20 19 18 20 23 28 28 24 21 81 87 97 99 100 100 100 100 100 100 83 43 29 22
98 96 93 84 82 59 47 43 62 70 59 48 51 51 45 49 42 37 29 29 28 28 33 31 28 26 24 23 21 20 20 30 29 24 29 98 99 99 100 100 100 100 100 95 64 49 29 22 24
100 97 83 68 58 60 51 28 56 68 64 59 50 62 61 55 46 41 33 31 36 28 29 36 33 32 29 29 25 22 21 31 33 27 36 91 100 100 100 100 100 98 85 62 43 27 26 29 28
78 66 61 52 41 37 42 39 46 52 58 79 69 62 58 58 53 49 39 32 39 29 28 37 41 36 34 31 28 25 23 31 32 30 48 73 88 100 98 100 85 64 50 30 29 30 33 35 36
54 50 50 56 49 33 43 38 34 63 76 84 87 74 68 61 59 50 48 35 44 34 27 38 46 40 38 36 31 26 27 32 32 30 62 67 84 87 85 79 63 47 31 29 32 35 39 40 40
61 76 66 50 39 30 36 32 23 48 58 59 84 57 58 62 60 52 59 47 55 43 30 36 50 43 43 45 37 28 28 31 31 39 62 72 76 88 66 52 36 32 34 39 44 42 39 39 40
64 57 49 35 33 27 31 27 24 28 20 36 62 51 42 51 56 59 59 58 65 50 34 37 54 49 47 47 43 37 35 33 33 51 67 80 90 65 51 40 42 42 38 39 43 46 46 43 48
59 52 52 38 28 15 17 16 14 19 26 14 25 65 50 46 54 58 62 62 70 62 41 41 58 57 53 52 51 44 41 41 43 62 79 86 82 63 56 47 45 47 46 45 43 42 45 54 55
56 45 57 70 35 20 8 7 8 9 14 16 17 52 90 50 64 59 72 69 73 73 46 49 63 63 60 58 54 50 47 47 52 78 82 91 92 70 62 56 49 48 49 48 44 46 57 57 53
58 100 98 64 42 27 5 6 4 4 7 16 15 28 81 49 66 78 76 69 58 69 49 47 67 65 62 58 52 53 54 53 57 79 94 100 100 93 77 66 61 53 49 46 47 54 59 57 57
97 78 57 51 32 22 6 11 2 2 3 11 16 22 49 60 58 72 63 78 62 72 56 43 60 64 64 64 61 63 60 59 62 84 100 100 100 96 80 70 61 51 51 49 50 59 60 58 58

GFSSGP_250_rhum_042.txt.gz
RH
24 19 18 18 18 23 27 23 22 27 26 31 22 25 30 24 28 37 48 55 55 41 39 34 30 28 30 35 26 24 29 36 40 41 41 44 46 54 62 90 77 73 54 49 46 49 53 50 46
26 22 21 22 18 24 30 29 27 30 27 32 30 22 21 26 32 26 45 73 71 58 44 46 36 36 38 36 43 37 27 28 32 37 40 43 48 56 57 90 81 48 46 42 41 45 52 51 45
28 29 27 29 23 26 24 26 45 37 31 22 28 23 24 19 20 29 30 42 63 91 76 51 52 45 38 39 42 44 47 36 32 35 39 40 41 42 48 55 52 44 44 43 47 55 60 55 47
37 30 32 40 42 35 36 32 45 45 36 26 24 23 24 24 19 22 38 33 43 76 89 72 60 58 54 42 38 37 44 50 53 43 44 45 49 51 58 58 59 57 52 53 52 75 89 64 58
52 50 41 64 63 60 60 48 54 48 38 35 30 24 21 22 28 25 27 42 41 69 100 93 77 67 70 62 47 40 44 44 42 47 48 44 45 48 52 55 56 56 62 65 55 55 76 87 100
66 55 57 89 81 70 67 68 62 54 44 38 31 25 23 25 25 30 30 36 41 44 72 98 87 79 87 80 76 61 58 57 54 47 45 52 56 60 60 52 51 51 58 68 77 65 65 95 93
62 59 83 95 79 66 56 44 38 40 38 31 29 26 26 26 26 33 38 38 47 65 66 85 100 100 100 100 100 100 82 67 76 84 73 69 72 71 62 52 51 59 74 80 84 93 100 87 77
69 65 81 83 73 61 44 38 35 22 22 27 24 22 21 20 20 24 30 37 38 47 76 83 97 100 100 100 100 100 100 86 85 96 99 100 100 100 91 80 80 93 100 100 98 80 63 58 65
76 69 77 67 57 50 41 29 18 16 16 16 15 18 16 15 16 15 15 17 21 28 37 61 84 100 100 100 100 100 100 100 100 98 97 88 87 98 97 100 100 100 100 97 90 78 71 71 68
80 70 64 56 48 41 34 30 17 17 17 17 15 15 14 13 12 12 13 13 14 15 20 25 38 73 96 100 100 100 100 100 100 100 100 100 100 100 97 82 94 93 93 94 96 86 76 76 78
69 60 51 44 40 35 30 22 18 18 21 19 18 18 16 14 11 11 10 10 11 12 13 17 23 47 51 60 84 100 100 100 100 100 100 100 100 100 100 90 89 81 79 81 91 95 92 94 87
64 58 52 39 34 30 24 21 20 21 23 22 18 17 17 16 14 13 11 11 11 12 12 12 14 17 22 33 57 49 64 92 99 100 100 100 100 100 100 99 95 88 78 89 81 98 93 96 96
65 54 46 42 41 36 29 27 24 28 28 26 21 18 19 19 17 16 13 12 12 12 11 12 12 14 17 37 92 100 98 80 58 79 78 79 90 95 90 98 96 90 92 92 87 79 81 97 100
75 68 52 54 45 51 39 33 29 31 23 27 27 24 22 22 19 17 18 19 17 15 12 12 12 12 15 17 19 40 95 100 97 82 69 61 64 64 73 80 85 94 87 76 78 75 78 95 100
72 94 70 70 56 58 53 53 45 41 31 30 30 31 29 27 24 20 16 17 22 21 19 16 12 12 12 16 18 20 25 51 77 95 93 88 89 85 94 94 91 90 82 70 72 72 74 98 96
83 87 87 77 73 60 59 72 58 50 47 39 31 30 29 32 30 24 19 19 20 22 22 23 19 14 13 14 15 18 19 22 24 24 27 44 49 64 57 57 54 51 53 59 48 70 82 95 100
76 76 88 86 80 88 66 59 76 61 56 46 40 36 34 35 34 32 28 26 21 22 24 23 23 20 16 14 14 15 18 20 19 18 19 18 18 18 19 18 20 22 26 46 60 81 93 97 95
77 82 90 84 74 78 89 89 100 89 72 65 58 46 36 35 40 38 30 28 29 27 24 22 22 20 21 17 15 14 16 18 18 18 19 20 23 25 21 22 24 32 47 63 83 88 93 98 100
83 78 74 100 78 68 69 75 94 100 100 100 84 68 52 47 41 42 38 32 29 31 30 24 21 21 21 21 19 18 17 16 16 19 25 30 24 23 19 22 28 53 64 80 87 93 100 100 100
85 87 78 78 78 62 69 61 63 73 86 100 100 94 81 61 50 39 46 40 34 35 40 28 21 20 20 22 22 21 19 17 18 25 30 24 19 22 24 21 32 86 92 93 100 100 100 100 100
92 91 100 96 80 69 85 56 64 67 79 99 99 91 72 60 51 45 46 48 40 34 41 38 24 22 19 21 24 24 24 20 19 20 22 22 23 25 23 23 29 82 83 88 96 100 100 100 100
100 100 92 80 83 72 67 45 67 83 100 100 91 83 68 54 41 34 44 41 48 38 35 42 27 22 20 19 24 26 25 24 25 23 26 24 25 27 27 28 35 68 82 97 98 92 100 87 69
100 87 80 81 78 74 70 50 60 94 98 86 74 55 51 57 53 39 42 52 51 45 39 43 31 27 22 20 24 29 27 27 26 30 31 27 27 28 29 36 53 70 82 88 94 93 77 59 43
76 70 88 89 90 69 80 56 50 72 58 55 52 48 38 39 51 57 62 57 48 51 43 46 39 32 28 25 26 30 28 30 32 40 34 29 32 30 31 34 49 58 76 82 78 74 49 39 33
80 88 86 77 59 49 52 55 57 56 41 37 39 40 40 35 38 45 53 53 53 57 56 48 43 34 32 28 32 36 32 33 66 61 37 39 38 36 34 30 43 55 77 75 68 51 40 41 41
88 80 68 57 71 79 73 66 60 48 38 39 36 38 44 45 41 45 50 58 56 57 58 54 45 37 36 32 34 46 38 34 38 48 49 45 49 44 39 38 54 70 75 75 58 50 46 46 50
67 72 90 88 69 50 50 48 44 42 33 17 14 18 22 29 40 43 61 63 82 68 62 62 52 39 39 35 38 54 46 41 44 48 52 49 47 47 45 55 67 72 72 74 66 61 57 55 51
100 89 70 60 54 54 46 42 59 32 23 8 8 12 14 20 25 30 49 61 80 84 68 68 56 47 47 41 43 64 55 49 53 53 58 55 52 52 52 70 76 77 83 87 77 70 71 70 68
83 80 77 71 56 47 46 58 31 18 10 4 6 8 9 14 19 24 34 54 93 76 69 74 65 51 46 49 48 68 66 56 59 61 65 61 56 54 57 73 78 90 99 99 100 99 90 79 69
72 80 65 66 60 47 38 66 10 6 6 7 4 5 6 13 15 16 30 54 97 74 68 79 77 63 59 57 54 74 72 64 65 73 76 67 64 62 59 64 85 98 100 100 100 91 79 69 61

GFSSGP_250_rhum_045.txt.gz
RH
25 22 26 29 33 30 25 25 21 24 30 27 19 17 22 24 23 32 35 25 25 32 31 35 37 39 34 30 29 32 25 24 22 23 26 29 30 36 43 51 50 47 61 73 59 63 51 48 41
28 28 28 26 24 23 22 23 26 22 26 24 21 24 25 27 27 28 30 32 26 24 27 33 37 44 40 32 29 31 37 36 29 26 22 20 21 24 27 29 33 36 40 41 82 83 37 34 36
30 30 27 27 25 26 22 22 20 20 19 23 22 22 21 21 22 24 26 27 29 25 25 31 37 40 40 38 38 32 33 33 37 35 30 27 25 20 20 25 29 34 41 45 49 49 43 38 37
28 31 29 20 23 25 25 20 18 20 17 15 19 20 22 21 22 24 23 23 22 27 29 29 31 48 56 56 40 43 41 40 45 49 54 46 39 32 27 27 33 40 49 56 56 57 58 52 44
28 31 32 31 36 29 26 20 20 21 19 18 20 17 24 30 31 28 22 20 20 22 27 30 32 35 45 60 78 52 45 57 52 45 44 52 57 60 58 54 52 56 60 62 61 52 46 54 65
34 36 33 45 36 29 29 30 30 27 20 21 22 18 26 48 44 42 34 33 28 25 26 25 35 42 50 57 80 87 69 59 67 71 65 59 58 61 62 66 73 69 64 70 71 65 58 67 79
39 47 56 41 69 37 37 20 33 30 29 35 36 54 40 58 53 50 41 34 30 28 27 31 33 48 54 68 88 100 99 86 75 81 88 84 70 68 73 72 74 82 82 94 95 81 80 96 100
64 64 67 73 74 36 30 27 42 42 52 71 70 57 44 44 46 43 37 34 30 28 29 31 33 34 45 69 78 95 100 100 95 91 96 94 92 93 86 83 86 92 100 100 100 97 94 100 100
83 83 73 79 60 47 32 51 51 71 67 65 55 40 34 31 29 26 31 31 26 24 28 30 33 42 43 55 65 96 100 100 100 100 100 100 100 98 88 86 87 86 93 96 99 95 100 100 100
88 84 96 68 60 56 51 65 60 70 67 54 46 40 29 22 19 19 20 23 24 23 22 22 27 35 41 44 48 61 100 100 100 100 100 100 100 100 100 100 98 95 99 100 100 100 92 82 74
92 95 83 75 68 60 64 70 58 57 55 44 37 31 29 22 15 14 15 15 15 16 17 17 17 16 21 28 33 37 44 80 100 100 100 100 100 100 100 100 100 100 100 100 100 100 100 100 93
100 100 86 93 67 71 67 64 60 50 44 40 38 31 24 18 16 15 15 15 14 14 13 13 12 12 13 13 14 18 23 30 47 71 96 100 100 100 100 100 100 100 100 100 100 100 90 78 71
100 91 89 87 82 70 72 68 60 51 43 40 32 26 21 19 18 16 15 15 16 17 16 14 12 11 11 10 12 13 15 21 24 31 43 66 75 76 81 86 94 100 99 100 100 95 76 71 76
95 85 92 88 88 79 74 64 55 42 37 33 30 26 22 21 22 19 20 18 16 16 17 17 16 13 11 11 12 12 13 17 20 24 31 61 53 54 57 60 64 56 56 70 68 70 77 74 78
100 99 86 83 82 80 74 65 50 44 40 39 35 32 30 32 30 28 26 22 20 21 20 18 17 16 14 12 11 12 17 14 17 19 20 30 66 97 100 100 100 87 97 92 81 84 76 67 63
100 100 100 79 72 68 63 65 58 52 46 46 47 44 41 39 40 35 29 28 23 22 24 22 19 16 15 15 14 13 13 12 14 18 18 18 19 22 45 73 89 67 72 61 51 49 41 26 27
100 100 100 100 79 67 71 63 68 61 58 55 58 58 50 51 52 43 36 32 29 27 26 26 23 19 16 14 15 14 15 13 12 14 14 13 17 20 21 23 22 20 19 17 16 18 21 22 29
100 100 100 100 96 81 83 68 99 72 64 65 62 65 62 48 56 51 50 40 32 30 28 28 29 25 20 17 16 17 19 19 17 15 12 12 14 18 19 20 20 20 19 16 16 20 24 26 42
100 100 100 100 100 100 98 65 76 87 89 77 68 74 87 93 79 76 64 60 49 31 28 29 29 27 27 24 21 17 17 20 26 33 28 16 15 15 18 20 21 19 17 18 22 19 20 60 78
100 100 100 100 97 85 78 67 66 75 88 88 84 76 78 90 99 100 100 85 72 40 29 29 29 29 24 23 23 23 20 25 21 24 33 34 20 20 18 21 20 18 18 18 19 20 19 34 76
98 91 89 82 76 76 72 70 74 73 72 86 84 72 70 73 77 77 70 84 90 79 53 34 30 32 32 28 25 22 24 22 22 24 24 26 30 53 46 40 28 22 18 18 20 21 19 24 55
98 94 82 72 72 73 76 67 78 88 92 95 79 69 71 77 68 65 65 64 58 75 80 56 42 33 37 33 30 26 26 24 23 23 26 29 36 55 66 59 30 23 19 18 21 20 20 26 44
96 96 95 90 83 75 77 64 72 100 100 100 99 99 79 53 48 56 65 65 63 60 66 67 50 42 53 37 36 31 29 29 25 23 26 32 36 32 42 43 27 25 26 26 21 19 21 24 44
100 99 94 88 83 68 85 91 100 100 98 75 69 68 50 51 56 51 46 52 53 52 50 54 59 57 56 58 41 38 32 31 28 26 29 38 37 47 55 42 34 33 30 33 27 24 26 29 54
100 100 96 89 88 91 92 90 89 79 69 58 59 55 59 62 59 52 47 55 69 60 54 55 68 71 61 66 51 44 40 34 31 28 35 44 44 58 59 50 44 45 40 37 35 30 32 46 63
100 100 100 84 92 92 68 68 88 69 90 50 44 42 42 43 40 41 46 46 46 50 54 55 55 73 86 73 55 54 49 40 39 32 41 45 54 63 72 66 65 52 45 43 42 44 51 59 70
98 90 75 67 60 52 62 71 66 67 66 55 48 38 33 32 35 41 42 42 40 43 42 49 61 66 75 78 61 66 59 43 42 37 43 55 54 72 83 87 88 86 62 60 64 63 69 77 73
58 83 76 66 63 73 76 72 66 59 54 50 50 34 18 10 11 16 28 34 43 40 44 51 58 62 73 85 78 78 66 53 48 40 40 52 52 54 75 90 93 91 82 78 75 70 78 84 86
66 78 81 74 78 71 62 69 54 46 43 42 31 16 10 9 10 12 15 23 31 30 39 48 58 60 88 100 100 89 76 61 56 46 52 58 62 52 53 60 70 80 78 82 75 71 69 88 86
99 74 91 77 72 70 65 56 37 44 38 31 9 12 8 8 6 8 13 16 25 29 32 41 56 70 84 100 100 89 88 70 66 53 48 68 68 60 57 60 72 81 75 80 75 76 79 79 85

GFSSGP_250_rhum_048.txt.gz
RH
29 25 24 25 17 19 22 18 18 16 13 15 18 16 15 14 12 12 16 19 17 15 16 22 27 27 30 30 31 29 29 24 20 20 22 22 22 22 20 30 44 45 51 50 55 38 36 46 55
30 28 29 26 24 22 27 24 18 15 13 19 14 15 18 11 14 13 12 17 16 16 17 18 20 25 30 32 34 35 32 35 31 26 20 21 22 24 23 24 28 29 29 31 30 32 34 37 41
28 25 26 26 30 32 26 23 29 30 27 20 17 17 16 14 24 18 17 18 20 21 23 23 21 19 21 24 29 38 39 39 35 31 31 25 31 27 22 26 23 22 24 26 28 32 35 39 47
27 24 23 27 31 29 32 27 28 28 30 27 23 23 17 20 24 24 21 25 29 25 26 23 22 26 25 21 22 27 37 42 40 39 33 36 33 38 44 31 31 32 29 31 35 38 41 47 54
26 26 24 23 32 26 30 28 29 26 22 23 22 22 17 20 23 25 22 21 26 33 31 27 25 24 23 26 25 27 29 42 48 51 55 45 42 45 43 50 54 49 47 46 51 55 61 62 65
26 25 25 26 30 28 26 26 22 27 26 24 26 20 19 23 20 22 22 19 22 27 26 24 27 27 24 22 28 28 30 36 46 56 61 73 61 51 56 59 52 55 61 64 66 68 69 76 76
37 30 25 24 27 30 28 25 22 25 24 22 20 21 21 28 25 30 29 25 25 32 33 31 26 23 22 24 25 27 30 32 37 47 59 73 81 72 70 72 76 76 76 66 64 68 71 67 74
62 47 26 32 48 37 32 25 22 26 28 22 24 32 16 25 47 30 26 23 27 31 46 46 49 38 34 28 28 28 30 38 40 60 70 78 99 98 92 81 72 71 80 79 84 74 76 79 85
86 80 82 99 60 52 32 24 24 32 26 30 44 36 25 24 35 30 40 43 42 42 41 48 51 47 41 35 30 28 29 32 49 64 75 97 100 100 100 100 98 93 84 79 83 89 95 94 93
83 86 100 95 70 57 46 35 32 33 34 29 32 31 31 31 52 56 57 52 42 37 33 31 29 28 32 34 31 28 27 28 34 53 74 98 100 100 98 100 100 100 100 100 100 100 100 100 100
96 100 100 92 95 77 62 47 48 43 43 47 36 39 43 60 64 51 50 43 40 34 28 23 20 20 21 25 25 24 27 32 37 40 52 60 64 80 100 100 100 100 100 100 100 100 100 100 100
90 99 100 96 90 81 83 66 55 48 53 53 61 58 61 63 60 53 42 30 28 27 21 19 15 14 15 16 18 20 20 19 19 23 30 40 42 43 41 52 97 100 100 100 100 100 100 100 100
100 100 100 100 100 99 78 68 60 60 62 64 51 66 74 63 48 40 34 32 27 28 20 16 14 14 15 14 14 16 13 13 13 14 15 16 19 20 23 25 27 34 47 63 73 87 90 78 68
100 100 100 100 100 99 82 75 70 83 60 65 57 48 58 56 53 45 37 32 25 22 19 16 15 15 13 14 16 14 14 13 12 11 12 12 13 16 17 18 21 23 25 45 63 70 67 55 66
100 100 100 100 100 100 87 76 76 92 66 76 72 68 62 57 50 43 36 30 26 23 19 19 20 18 15 13 16 14 16 15 18 14 11 11 11 11 12 16 20 23 25 45 51 76 95 96 92
100 100 100 100 100 100 90 85 84 89 67 75 77 68 59 53 45 40 35 31 28 26 22 21 24 23 20 19 16 18 18 19 18 16 17 14 12 11 12 14 15 18 21 21 24 27 40 56 44
100 100 100 100 100 100 93 78 73 69 71 72 67 59 54 52 47 53 47 42 37 31 27 24 24 26 22 21 21 18 21 20 19 16 18 18 15 15 15 13 14 17 18 19 20 22 22 21 18
100 100 100 100 100 100 96 99 98 77 84 65 52 50 54 57 63 60 60 63 55 43 37 32 31 32 28 24 23 22 20 29 25 19 17 19 20 20 16 14 14 17 17 17 18 20 19 18 18
100 100 100 100 100 100 92 89 100 90 90 76 59 52 57 63 58 61 62 72 64 55 47 44 36 41 32 28 27 28 23 26 38 29 21 20 22 27 27 27 34 25 18 17 17 18 17 17 17
100 100 100 100 100 100 100 100 100 99 82 81 95 99 88 71 65 54 59 61 66 70 82 95 94 72 63 34 30 25 30 35 27 26 26 25 23 22 26 32 34 40 40 26 18 16 17 17 18
96 100 100 100 100 100 98 96 98 100 100 98 91 82 72 69 65 64 54 52 56 72 80 86 91 84 76 55 36 34 34 40 30 28 28 28 28 23 24 37 47 39 46 40 33 25 21 21 22
84 90 100 100 100 100 100 100 100 86 100 98 88 76 76 74 72 69 69 67 59 56 60 71 81 79 61 74 50 41 35 41 41 47 54 59 44 30 26 34 44 37 31 35 32 34 45 46 36
90 92 89 84 84 75 77 72 66 82 75 74 68 74 79 71 71 74 73 80 79 61 57 59 65 73 66 65 58 56 44 53 63 58 46 37 35 34 30 26 29 33 35 38 39 51 53 48 29
96 91 87 87 82 79 78 70 62 82 77 71 68 68 68 73 80 83 83 70 58 55 68 77 62 72 70 62 62 62 65 56 60 45 35 35 36 37 35 29 29 38 43 44 52 56 67 54 34
95 99 100 98 96 94 96 95 92 92 73 84 89 84 77 77 76 71 67 67 56 52 47 50 64 56 58 61 59 59 62 59 55 58 48 39 40 38 35 33 34 41 44 50 53 56 66 66 50
100 97 98 100 97 100 90 94 100 100 100 78 68 77 89 76 59 48 40 38 44 43 48 52 46 46 58 68 70 61 71 65 74 71 58 54 43 43 39 39 34 45 52 57 71 67 70 72 64
91 90 97 94 98 96 100 99 99 99 95 94 77 69 64 45 34 38 40 41 41 45 46 44 44 52 58 62 58 64 77 72 68 82 73 68 52 50 44 43 39 47 61 80 88 90 89 80 85
98 99 100 96 88 93 91 100 97 92 76 64 47 42 40 36 34 34 34 32 34 34 39 40 36 38 39 41 46 56 60 62 59 91 90 88 63 57 56 52 44 61 86 88 89 100 100 100 100
100 100 100 99 96 90 72 62 58 60 53 60 64 47 35 28 28 25 20 20 21 19 20 27 40 37 42 42 50 58 66 66 75 95 100 98 75 68 58 53 48 50 76 74 68 79 100 100 100
75 66 63 60 65 71 60 74 81 77 57 40 36 28 20 17 13 11 12 13 13 18 21 21 27 36 38 43 60 64 69 69 81 96 100 98 83 76 65 65 52 58 78 81 77 77 80 81 81